Wetterdaten: Sonntag, 22.07.2018
Datum Zeit Temp. Aussen Temp. o. S. +5cm Feuchte Auss Luftdruck Regen Sonnenschein Regendauer Solar Windben Empfang
22.07.2018 00:00 21,4 C 20,0 C 20,0 C 74 % 1010,2 hPa 0,0 l/m 0 min 0 min 0 W/m 2,3 km/h (1 Bft) 97,87 %
22.07.2018 00:02 21,4 C 20,0 C 20,0 C 74 % 1010,2 hPa 0,0 l/m 0 min 0 min 0 W/m 6,8 km/h (2 Bft) 97,62 %
22.07.2018 00:04 21,4 C 20,0 C 20,0 C 74 % 1010,2 hPa 0,0 l/m 0 min 0 min 0 W/m 9,0 km/h (2 Bft) 100,00 %
22.07.2018 00:08 21,3 C 20,0 C 20,0 C 74 % 1010,2 hPa 0,0 l/m 0 min 0 min 0 W/m 6,8 km/h (2 Bft) 98,96 %
22.07.2018 00:10 21,3 C 20,0 C 20,0 C 74 % 1010,2 hPa 0,0 l/m 0 min 0 min 0 W/m 4,5 km/h (1 Bft) 97,83 %
22.07.2018 00:12 21,3 C 20,0 C 20,0 C 74 % 1010,2 hPa 0,0 l/m 0 min 0 min 0 W/m 4,5 km/h (1 Bft) 97,87 %
22.07.2018 00:14 21,2 C 20,0 C 20,0 C 74 % 1010,3 hPa 0,0 l/m 0 min 0 min 0 W/m 9,0 km/h (2 Bft) 100,00 %
22.07.2018 00:16 21,2 C 20,0 C 20,0 C 75 % 1010,3 hPa 0,0 l/m 0 min 0 min 0 W/m 6,8 km/h (2 Bft) 97,87 %
22.07.2018 00:18 21,2 C 20,0 C 20,0 C 75 % 1010,3 hPa 0,0 l/m 0 min 0 min 0 W/m 6,8 km/h (2 Bft) 97,87 %
22.07.2018 00:20 21,2 C 20,0 C 20,0 C 75 % 1010,3 hPa 0,0 l/m 0 min 0 min 0 W/m 6,8 km/h (2 Bft) 93,62 %
22.07.2018 00:22 21,2 C 20,0 C 19,4 C 75 % 1010,3 hPa 0,0 l/m 0 min 0 min 0 W/m 6,8 km/h (2 Bft) 95,92 %
22.07.2018 00:24 21,1 C 20,0 C 19,4 C 75 % 1010,3 hPa 0,0 l/m 0 min 0 min 0 W/m 9,0 km/h (2 Bft) 94,29 %
22.07.2018 00:26 21,1 C 20,0 C 19,4 C 75 % 1010,3 hPa 0,0 l/m 0 min 0 min 0 W/m 6,8 km/h (2 Bft) 95,74 %
22.07.2018 00:28 21,1 C 19,4 C 19,4 C 75 % 1010,3 hPa 0,0 l/m 0 min 0 min 0 W/m 6,8 km/h (2 Bft) 95,74 %
22.07.2018 00:30 21,0 C 20,0 C 19,4 C 75 % 1010,4 hPa 0,0 l/m 0 min 0 min 0 W/m 6,8 km/h (2 Bft) 93,62 %
22.07.2018 00:32 21,0 C 19,4 C 19,4 C 75 % 1010,4 hPa 0,0 l/m 0 min 0 min 0 W/m 9,0 km/h (2 Bft) 95,74 %
22.07.2018 00:34 21,0 C 19,4 C 19,4 C 75 % 1010,4 hPa 0,0 l/m 0 min 0 min 0 W/m 4,5 km/h (1 Bft) 95,74 %
22.07.2018 00:36 21,0 C 19,4 C 19,4 C 76 % 1010,4 hPa 0,0 l/m 0 min 0 min 0 W/m 6,8 km/h (2 Bft) 95,74 %
22.07.2018 00:38 20,9 C 19,4 C 19,4 C 76 % 1010,3 hPa 0,0 l/m 0 min 0 min 0 W/m 6,8 km/h (2 Bft) 93,62 %
22.07.2018 00:40 20,9 C 19,4 C 19,4 C 76 % 1010,4 hPa 0,0 l/m 0 min 0 min 0 W/m 0,0 km/h (0 Bft) 93,62 %
22.07.2018 00:42 20,8 C 19,4 C 19,4 C 76 % 1010,4 hPa 0,0 l/m 0 min 0 min 0 W/m 9,0 km/h (2 Bft) 95,74 %
22.07.2018 00:44 20,8 C 19,4 C 19,4 C 76 % 1010,4 hPa 0,0 l/m 0 min 0 min 0 W/m 2,3 km/h (1 Bft) 95,74 %
22.07.2018 00:46 20,8 C 19,4 C 19,4 C 76 % 1010,4 hPa 0,0 l/m 0 min 0 min 0 W/m 6,8 km/h (2 Bft) 93,62 %
22.07.2018 00:48 20,8 C 19,4 C 18,9 C 76 % 1010,4 hPa 0,0 l/m 0 min 0 min 0 W/m 4,5 km/h (1 Bft) 95,65 %
22.07.2018 00:50 20,7 C 19,4 C 18,9 C 77 % 1010,4 hPa 0,0 l/m 0 min 0 min 0 W/m 4,5 km/h (1 Bft) 95,74 %
22.07.2018 00:52 20,7 C 19,4 C 18,9 C 77 % 1010,4 hPa 0,0 l/m 0 min 0 min 0 W/m 4,5 km/h (1 Bft) 95,74 %
22.07.2018 00:54 20,6 C 18,9 C 18,9 C 77 % 1010,5 hPa 0,0 l/m 0 min 0 min 0 W/m 4,5 km/h (1 Bft) 93,62 %
22.07.2018 00:56 20,6 C 18,9 C 18,9 C 77 % 1010,5 hPa 0,0 l/m 0 min 0 min 0 W/m 6,8 km/h (2 Bft) 95,74 %
22.07.2018 00:58 20,6 C 18,9 C 18,9 C 77 % 1010,5 hPa 0,0 l/m 0 min 0 min 0 W/m 4,5 km/h (1 Bft) 93,48 %
22.07.2018 01:00 20,5 C 18,9 C 18,9 C 77 % 1010,5 hPa 0,0 l/m 0 min 0 min 0 W/m 4,5 km/h (1 Bft) 95,74 %
22.07.2018 01:02 20,4 C 18,9 C 18,9 C 77 % 1010,5 hPa 0,0 l/m 0 min 0 min 0 W/m 2,3 km/h (1 Bft) 89,36 %
22.07.2018 01:04 20,4 C 18,9 C 18,9 C 77 % 1010,5 hPa 0,0 l/m 0 min 0 min 0 W/m 9,0 km/h (2 Bft) 93,62 %
22.07.2018 01:08 20,3 C 18,9 C 18,9 C 78 % 1010,5 hPa 0,0 l/m 0 min 0 min 0 W/m 4,5 km/h (1 Bft) 95,79 %
22.07.2018 01:10 20,3 C 18,9 C 18,9 C 78 % 1010,5 hPa 0,0 l/m 0 min 0 min 0 W/m 6,8 km/h (2 Bft) 97,83 %
22.07.2018 01:12 20,3 C 18,9 C 18,9 C 78 % 1010,5 hPa 0,0 l/m 0 min 0 min 0 W/m 9,0 km/h (2 Bft) 97,87 %
22.07.2018 01:14 20,2 C 18,9 C 18,9 C 78 % 1010,6 hPa 0,0 l/m 0 min 0 min 0 W/m 6,8 km/h (2 Bft) 95,74 %
22.07.2018 01:16 20,2 C 18,9 C 18,9 C 78 % 1010,7 hPa 0,0 l/m 0 min 0 min 0 W/m 11,3 km/h (2 Bft) 97,87 %
22.07.2018 01:18 20,2 C 18,9 C 18,9 C 78 % 1010,6 hPa 0,0 l/m 0 min 0 min 0 W/m 9,0 km/h (2 Bft) 97,87 %
22.07.2018 01:20 20,2 C 18,9 C 18,9 C 78 % 1010,6 hPa 0,0 l/m 0 min 0 min 0 W/m 9,0 km/h (2 Bft) 97,87 %
22.07.2018 01:22 20,1 C 18,9 C 18,3 C 78 % 1010,6 hPa 0,0 l/m 0 min 0 min 0 W/m 4,5 km/h (1 Bft) 93,48 %
22.07.2018 01:24 20,1 C 18,9 C 18,3 C 79 % 1010,6 hPa 0,0 l/m 0 min 0 min 0 W/m 6,8 km/h (2 Bft) 97,87 %
22.07.2018 01:26 20,1 C 18,9 C 18,3 C 79 % 1010,7 hPa 0,0 l/m 0 min 0 min 0 W/m 6,8 km/h (2 Bft) 97,87 %
22.07.2018 01:28 20,0 C 18,9 C 18,3 C 79 % 1010,7 hPa 0,0 l/m 0 min 0 min 0 W/m 4,5 km/h (1 Bft) 97,87 %
22.07.2018 01:30 19,9 C 18,9 C 18,3 C 79 % 1010,7 hPa 0,0 l/m 0 min 0 min 0 W/m 6,8 km/h (2 Bft) 97,87 %
22.07.2018 01:32 19,9 C 18,9 C 18,3 C 79 % 1010,7 hPa 0,0 l/m 0 min 0 min 0 W/m 9,0 km/h (2 Bft) 95,74 %
22.07.2018 01:34 19,9 C 18,9 C 18,3 C 79 % 1010,7 hPa 0,0 l/m 0 min 0 min 0 W/m 6,8 km/h (2 Bft) 97,83 %
22.07.2018 01:36 19,8 C 18,9 C 18,3 C 79 % 1010,7 hPa 0,0 l/m 0 min 0 min 0 W/m 6,8 km/h (2 Bft) 97,87 %
22.07.2018 01:38 19,8 C 18,9 C 18,3 C 79 % 1010,6 hPa 0,0 l/m 0 min 0 min 0 W/m 4,5 km/h (1 Bft) 97,87 %
22.07.2018 01:40 19,8 C 18,3 C 18,3 C 79 % 1010,7 hPa 0,0 l/m 0 min 0 min 0 W/m 6,8 km/h (2 Bft) 97,87 %
22.07.2018 01:42 19,8 C 18,3 C 18,3 C 79 % 1010,7 hPa 0,0 l/m 0 min 0 min 0 W/m 6,8 km/h (2 Bft) 97,87 %
22.07.2018 01:44 19,7 C 18,3 C 18,3 C 79 % 1010,8 hPa 0,0 l/m 0 min 0 min 0 W/m 6,8 km/h (2 Bft) 97,83 %
22.07.2018 01:46 19,7 C 18,3 C 18,3 C 79 % 1010,8 hPa 0,0 l/m 0 min 0 min 0 W/m 6,8 km/h (2 Bft) 97,87 %
22.07.2018 01:48 19,7 C 18,3 C 18,3 C 79 % 1010,8 hPa 0,0 l/m 0 min 0 min 0 W/m 6,8 km/h (2 Bft) 97,87 %
22.07.2018 01:50 19,7 C 18,3 C 18,3 C 79 % 1010,8 hPa 0,0 l/m 0 min 0 min 0 W/m 4,5 km/h (1 Bft) 97,87 %
22.07.2018 01:52 19,6 C 18,3 C 18,3 C 79 % 1010,7 hPa 0,0 l/m 0 min 0 min 0 W/m 6,8 km/h (2 Bft) 95,83 %
22.07.2018 01:54 19,6 C 18,3 C 18,3 C 79 % 1010,8 hPa 0,0 l/m 0 min 0 min 0 W/m 4,5 km/h (1 Bft) 100,00 %
22.07.2018 01:56 19,6 C 18,3 C 18,3 C 79 % 1010,8 hPa 0,0 l/m 0 min 0 min 0 W/m 4,5 km/h (1 Bft) 97,83 %
22.07.2018 01:58 19,6 C 18,3 C 18,3 C 79 % 1010,8 hPa 0,0 l/m 0 min 0 min 0 W/m 6,8 km/h (2 Bft) 95,74 %
22.07.2018 02:00 19,5 C 18,3 C 18,3 C 79 % 1010,8 hPa 0,0 l/m 0 min 0 min 0 W/m 6,8 km/h (2 Bft) 97,87 %
22.07.2018 02:02 19,5 C 18,3 C 18,3 C 79 % 1010,8 hPa 0,0 l/m 0 min 0 min 0 W/m 4,5 km/h (1 Bft) 97,87 %
22.07.2018 02:04 19,4 C 18,3 C 18,3 C 79 % 1010,8 hPa 0,0 l/m 0 min 0 min 0 W/m 4,5 km/h (1 Bft) 97,87 %
22.07.2018 02:06 19,4 C 18,3 C 18,3 C 79 % 1010,8 hPa 0,0 l/m 0 min 0 min 0 W/m 4,5 km/h (1 Bft) 97,87 %
22.07.2018 02:08 19,4 C 18,3 C 18,3 C 79 % 1010,8 hPa 0,0 l/m 0 min 0 min 0 W/m 4,5 km/h (1 Bft) 97,83 %
22.07.2018 02:10 19,4 C 18,3 C 18,3 C 79 % 1010,8 hPa 0,0 l/m 0 min 0 min 0 W/m 4,5 km/h (1 Bft) 95,74 %
22.07.2018 02:12 19,3 C 18,3 C 18,3 C 79 % 1010,9 hPa 0,0 l/m 0 min 0 min 0 W/m 4,5 km/h (1 Bft) 100,00 %
22.07.2018 02:14 19,3 C 18,3 C 18,3 C 79 % 1010,9 hPa 0,0 l/m 0 min 0 min 0 W/m 4,5 km/h (1 Bft) 97,87 %
22.07.2018 02:16 19,3 C 17,8 C 17,8 C 79 % 1010,9 hPa 0,0 l/m 0 min 0 min 0 W/m 6,8 km/h (2 Bft) 100,00 %
22.07.2018 02:18 19,3 C 17,8 C 17,8 C 79 % 1010,9 hPa 0,0 l/m 0 min 0 min 0 W/m 4,5 km/h (1 Bft) 100,00 %
22.07.2018 02:20 19,3 C 17,8 C 17,8 C 79 % 1010,9 hPa 0,0 l/m 0 min 0 min 0 W/m 4,5 km/h (1 Bft) 100,00 %
22.07.2018 02:22 19,2 C 17,8 C 17,8 C 79 % 1010,8 hPa 0,0 l/m 0 min 0 min 0 W/m 4,5 km/h (1 Bft) 100,00 %
22.07.2018 02:24 19,2 C 17,8 C 17,8 C 79 % 1010,8 hPa 0,0 l/m 0 min 0 min 0 W/m 2,3 km/h (1 Bft) 100,00 %
22.07.2018 02:26 19,2 C 17,8 C 17,8 C 80 % 1010,8 hPa 0,0 l/m 0 min 0 min 0 W/m 2,3 km/h (1 Bft) 100,00 %
22.07.2018 02:28 19,2 C 17,8 C 17,8 C 80 % 1010,9 hPa 0,0 l/m 0 min 0 min 0 W/m 4,5 km/h (1 Bft) 97,87 %
22.07.2018 02:30 19,2 C 17,8 C 17,8 C 80 % 1010,9 hPa 0,0 l/m 0 min 0 min 0 W/m 2,3 km/h (1 Bft) 100,00 %
22.07.2018 02:32 19,1 C 17,8 C 17,8 C 80 % 1010,9 hPa 0,0 l/m 0 min 0 min 0 W/m 0,0 km/h (0 Bft) 100,00 %
22.07.2018 02:34 19,1 C 17,8 C 17,8 C 80 % 1010,9 hPa 0,0 l/m 0 min 0 min 0 W/m 0,0 km/h (0 Bft) 100,00 %
22.07.2018 02:36 19,1 C 17,8 C 17,8 C 80 % 1010,9 hPa 0,0 l/m 0 min 0 min 0 W/m 0,0 km/h (0 Bft) 100,00 %
22.07.2018 02:38 19,1 C 17,2 C 17,8 C 80 % 1010,9 hPa 0,0 l/m 0 min 0 min 0 W/m 0,0 km/h (0 Bft) 100,00 %
22.07.2018 02:40 19,0 C 17,2 C 17,8 C 80 % 1010,9 hPa 0,0 l/m 0 min 0 min 0 W/m 0,0 km/h (0 Bft) 95,74 %
22.07.2018 02:42 19,0 C 17,2 C 17,8 C 80 % 1010,9 hPa 0,0 l/m 0 min 0 min 0 W/m 0,0 km/h (0 Bft) 100,00 %
22.07.2018 02:44 18,9 C 17,2 C 17,8 C 80 % 1010,9 hPa 0,0 l/m 0 min 0 min 0 W/m 0,0 km/h (0 Bft) 100,00 %
22.07.2018 02:46 18,9 C 17,2 C 17,8 C 81 % 1011,0 hPa 0,0 l/m 0 min 0 min 0 W/m 4,5 km/h (1 Bft) 100,00 %
22.07.2018 02:48 18,9 C 17,2 C 17,8 C 81 % 1011,0 hPa 0,0 l/m 0 min 0 min 0 W/m 2,3 km/h (1 Bft) 97,87 %
22.07.2018 02:50 18,8 C 17,2 C 17,8 C 81 % 1011,0 hPa 0,0 l/m 0 min 0 min 0 W/m 0,0 km/h (0 Bft) 95,74 %
22.07.2018 02:52 18,8 C 17,2 C 17,8 C 80 % 1010,9 hPa 0,0 l/m 0 min 0 min 0 W/m 0,0 km/h (0 Bft) 100,00 %
22.07.2018 02:54 18,8 C 17,2 C 17,2 C 81 % 1010,9 hPa 0,0 l/m 0 min 0 min 0 W/m 4,5 km/h (1 Bft) 100,00 %
22.07.2018 02:56 18,8 C 17,2 C 17,2 C 81 % 1010,9 hPa 0,0 l/m 0 min 0 min 0 W/m 2,3 km/h (1 Bft) 97,83 %
22.07.2018 02:58 18,7 C 17,2 C 17,2 C 81 % 1010,9 hPa 0,0 l/m 0 min 0 min 0 W/m 0,0 km/h (0 Bft) 97,87 %
22.07.2018 03:00 18,7 C 17,2 C 17,2 C 81 % 1010,9 hPa 0,0 l/m 0 min 0 min 0 W/m 2,3 km/h (1 Bft) 97,87 %
22.07.2018 03:02 18,7 C 17,2 C 17,2 C 81 % 1011,0 hPa 0,0 l/m 0 min 0 min 0 W/m 0,0 km/h (0 Bft) 95,74 %
22.07.2018 03:04 18,7 C 17,2 C 17,2 C 81 % 1011,0 hPa 0,0 l/m 0 min 0 min 0 W/m 0,0 km/h (0 Bft) 95,74 %
22.07.2018 03:06 18,6 C 17,2 C 17,2 C 81 % 1011,0 hPa 0,0 l/m 0 min 0 min 0 W/m 4,5 km/h (1 Bft) 95,74 %
22.07.2018 03:08 18,6 C 17,2 C 17,2 C 81 % 1011,0 hPa 0,0 l/m 0 min 0 min 0 W/m 0,0 km/h (0 Bft) 97,87 %
22.07.2018 03:10 18,6 C 17,2 C 17,2 C 81 % 1011,0 hPa 0,0 l/m 0 min 0 min 0 W/m 4,5 km/h (1 Bft) 97,87 %
22.07.2018 03:12 18,5 C 17,2 C 17,2 C 81 % 1011,0 hPa 0,0 l/m 0 min 0 min 0 W/m 6,8 km/h (2 Bft) 95,74 %
22.07.2018 03:14 18,5 C 17,2 C 17,2 C 81 % 1010,9 hPa 0,0 l/m 0 min 0 min 0 W/m 2,3 km/h (1 Bft) 93,62 %
22.07.2018 03:16 18,4 C 17,2 C 17,2 C 81 % 1010,9 hPa 0,0 l/m 0 min 0 min 0 W/m 0,0 km/h (0 Bft) 95,65 %
22.07.2018 03:18 18,4 C 17,2 C 17,2 C 81 % 1010,9 hPa 0,0 l/m 0 min 0 min 0 W/m 2,3 km/h (1 Bft) 93,62 %
22.07.2018 03:20 18,4 C 17,2 C 17,2 C 81 % 1011,0 hPa 0,0 l/m 0 min 0 min 0 W/m 0,0 km/h (0 Bft) 95,74 %
22.07.2018 03:22 18,3 C 17,2 C 17,2 C 81 % 1011,0 hPa 0,0 l/m 0 min 0 min 0 W/m 0,0 km/h (0 Bft) 93,62 %
22.07.2018 03:24 18,3 C 17,2 C 17,2 C 81 % 1011,0 hPa 0,0 l/m 0 min 0 min 0 W/m 0,0 km/h (0 Bft) 95,74 %
22.07.2018 03:26 18,3 C 16,7 C 17,2 C 81 % 1010,9 hPa 0,0 l/m 0 min 0 min 0 W/m 0,0 km/h (0 Bft) 93,48 %
22.07.2018 03:28 18,3 C 16,7 C 17,2 C 81 % 1010,9 hPa 0,0 l/m 0 min 0 min 0 W/m 0,0 km/h (0 Bft) 95,74 %
22.07.2018 03:30 18,3 C 16,7 C 17,2 C 82 % 1010,9 hPa 0,0 l/m 0 min 0 min 0 W/m 0,0 km/h (0 Bft) 95,74 %
22.07.2018 03:32 18,2 C 16,7 C 17,2 C 82 % 1010,9 hPa 0,0 l/m 0 min 0 min 0 W/m 0,0 km/h (0 Bft) 93,62 %
22.07.2018 03:34 18,2 C 16,7 C 17,2 C 82 % 1010,8 hPa 0,0 l/m 0 min 0 min 0 W/m 0,0 km/h (0 Bft) 95,74 %
22.07.2018 03:36 18,2 C 16,7 C 16,7 C 82 % 1010,9 hPa 0,0 l/m 0 min 0 min 0 W/m 0,0 km/h (0 Bft) 95,74 %
22.07.2018 03:38 18,2 C 16,7 C 16,7 C 82 % 1010,9 hPa 0,0 l/m 0 min 0 min 0 W/m 0,0 km/h (0 Bft) 95,74 %
22.07.2018 03:40 18,1 C 16,7 C 16,7 C 82 % 1011,0 hPa 0,0 l/m 0 min 0 min 0 W/m 0,0 km/h (0 Bft) 95,65 %
22.07.2018 03:42 18,1 C 16,7 C 16,7 C 82 % 1010,9 hPa 0,0 l/m 0 min 0 min 0 W/m 0,0 km/h (0 Bft) 95,74 %
22.07.2018 03:44 18,1 C 16,7 C 16,7 C 82 % 1010,9 hPa 0,0 l/m 0 min 0 min 0 W/m 0,0 km/h (0 Bft) 95,74 %
22.07.2018 03:46 18,1 C 16,7 C 16,7 C 82 % 1010,9 hPa 0,0 l/m 0 min 0 min 0 W/m 2,3 km/h (1 Bft) 97,87 %
22.07.2018 03:48 18,0 C 16,7 C 16,7 C 82 % 1010,9 hPa 0,0 l/m 0 min 0 min 0 W/m 0,0 km/h (0 Bft) 95,74 %
22.07.2018 03:50 18,0 C 16,7 C 16,7 C 82 % 1010,9 hPa 0,0 l/m 0 min 0 min 0 W/m 0,0 km/h (0 Bft) 95,65 %
22.07.2018 03:52 17,9 C 16,7 C 16,7 C 82 % 1010,9 hPa 0,0 l/m 0 min 0 min 0 W/m 0,0 km/h (0 Bft) 98,11 %
22.07.2018 03:54 17,9 C 16,7 C 16,7 C 82 % 1011,0 hPa 0,0 l/m 0 min 0 min 0 W/m 0,0 km/h (0 Bft) 95,74 %
22.07.2018 03:56 17,9 C 16,7 C 16,7 C 83 % 1011,0 hPa 0,0 l/m 0 min 0 min 0 W/m 0,0 km/h (0 Bft) 97,87 %
22.07.2018 03:58 17,9 C 16,7 C 16,7 C 83 % 1011,0 hPa 0,0 l/m 0 min 0 min 0 W/m 2,3 km/h (1 Bft) 97,87 %
22.07.2018 04:00 17,9 C 16,7 C 16,7 C 83 % 1011,1 hPa 0,0 l/m 0 min 0 min 0 W/m 0,0 km/h (0 Bft) 97,87 %
22.07.2018 04:02 17,9 C 16,7 C 16,7 C 83 % 1011,0 hPa 0,0 l/m 0 min 0 min 0 W/m 4,5 km/h (1 Bft) 100,00 %
22.07.2018 04:04 17,8 C 16,1 C 16,7 C 83 % 1011,0 hPa 0,0 l/m 0 min 0 min 0 W/m 4,5 km/h (1 Bft) 95,65 %
22.07.2018 04:06 17,8 C 16,7 C 16,7 C 83 % 1011,1 hPa 0,0 l/m 0 min 0 min 0 W/m 0,0 km/h (0 Bft) 100,00 %
22.07.2018 04:08 17,7 C 16,1 C 16,7 C 83 % 1011,2 hPa 0,0 l/m 0 min 0 min 0 W/m 2,3 km/h (1 Bft) 100,00 %
22.07.2018 04:10 17,7 C 16,1 C 16,7 C 83 % 1011,1 hPa 0,0 l/m 0 min 0 min 0 W/m 2,3 km/h (1 Bft) 95,74 %
22.07.2018 04:12 17,7 C 16,1 C 16,7 C 83 % 1011,1 hPa 0,0 l/m 0 min 0 min 0 W/m 4,5 km/h (1 Bft) 97,87 %
22.07.2018 04:14 17,7 C 16,1 C 16,7 C 83 % 1011,1 hPa 0,0 l/m 0 min 0 min 0 W/m 6,8 km/h (2 Bft) 100,00 %
22.07.2018 04:16 17,6 C 16,1 C 16,7 C 83 % 1011,3 hPa 0,0 l/m 0 min 0 min 0 W/m 0,0 km/h (0 Bft) 100,00 %
22.07.2018 04:18 17,6 C 16,1 C 16,7 C 83 % 1011,1 hPa 0,0 l/m 0 min 0 min 0 W/m 2,3 km/h (1 Bft) 97,87 %
22.07.2018 04:20 17,6 C 16,1 C 16,7 C 83 % 1011,1 hPa 0,0 l/m 0 min 0 min 0 W/m 2,3 km/h (1 Bft) 100,00 %
22.07.2018 04:22 17,5 C 16,1 C 16,7 C 83 % 1011,1 hPa 0,0 l/m 0 min 0 min 0 W/m 0,0 km/h (0 Bft) 97,87 %
22.07.2018 04:24 17,5 C 16,1 C 16,1 C 83 % 1011,1 hPa 0,0 l/m 0 min 0 min 0 W/m 2,3 km/h (1 Bft) 100,00 %
22.07.2018 04:26 17,4 C 16,1 C 16,7 C 83 % 1011,0 hPa 0,0 l/m 0 min 0 min 0 W/m 0,0 km/h (0 Bft) 97,83 %
22.07.2018 04:28 17,4 C 16,1 C 16,1 C 84 % 1011,1 hPa 0,0 l/m 0 min 0 min 0 W/m 6,8 km/h (2 Bft) 100,00 %
22.07.2018 04:30 17,4 C 16,1 C 16,1 C 84 % 1011,1 hPa 0,0 l/m 0 min 0 min 0 W/m 2,3 km/h (1 Bft) 100,00 %
22.07.2018 04:32 17,4 C 16,1 C 16,1 C 84 % 1011,1 hPa 0,0 l/m 0 min 0 min 0 W/m 0,0 km/h (0 Bft) 97,87 %
22.07.2018 04:34 17,4 C 16,1 C 16,1 C 84 % 1011,1 hPa 0,0 l/m 0 min 0 min 0 W/m 0,0 km/h (0 Bft) 100,00 %
22.07.2018 04:36 17,3 C 16,1 C 16,1 C 84 % 1011,1 hPa 0,0 l/m 0 min 0 min 0 W/m 0,0 km/h (0 Bft) 100,00 %
22.07.2018 04:38 17,3 C 16,1 C 16,1 C 84 % 1011,1 hPa 0,0 l/m 0 min 0 min 0 W/m 2,3 km/h (1 Bft) 100,00 %
22.07.2018 04:40 17,3 C 16,1 C 16,1 C 84 % 1011,1 hPa 0,0 l/m 0 min 0 min 0 W/m 0,0 km/h (0 Bft) 100,00 %
22.07.2018 04:42 17,3 C 16,1 C 16,1 C 84 % 1011,1 hPa 0,0 l/m 0 min 0 min 0 W/m 6,8 km/h (2 Bft) 100,00 %
22.07.2018 04:44 17,2 C 16,1 C 16,1 C 84 % 1011,0 hPa 0,0 l/m 0 min 0 min 0 W/m 6,8 km/h (2 Bft) 100,00 %
22.07.2018 04:46 17,2 C 16,1 C 16,1 C 84 % 1011,0 hPa 0,0 l/m 0 min 0 min 0 W/m 0,0 km/h (0 Bft) 100,00 %
22.07.2018 04:48 17,2 C 16,1 C 16,1 C 84 % 1011,0 hPa 0,0 l/m 0 min 0 min 0 W/m 0,0 km/h (0 Bft) 100,00 %
22.07.2018 04:50 17,2 C 16,1 C 16,1 C 84 % 1011,0 hPa 0,0 l/m 0 min 0 min 0 W/m 2,3 km/h (1 Bft) 100,00 %
22.07.2018 04:52 17,1 C 16,1 C 16,1 C 84 % 1011,0 hPa 0,0 l/m 0 min 0 min 0 W/m 2,3 km/h (1 Bft) 100,00 %
22.07.2018 04:54 17,1 C 16,1 C 16,1 C 84 % 1011,0 hPa 0,0 l/m 0 min 0 min 0 W/m 0,0 km/h (0 Bft) 97,14 %
22.07.2018 04:56 17,1 C 15,6 C 16,1 C 84 % 1011,0 hPa 0,0 l/m 0 min 0 min 0 W/m 2,3 km/h (1 Bft) 100,00 %
22.07.2018 04:58 17,1 C 15,6 C 16,1 C 84 % 1011,0 hPa 0,0 l/m 0 min 0 min 0 W/m 0,0 km/h (0 Bft) 100,00 %
22.07.2018 05:00 17,1 C 15,6 C 16,1 C 84 % 1011,0 hPa 0,0 l/m 0 min 0 min 0 W/m 0,0 km/h (0 Bft) 100,00 %
22.07.2018 05:02 17,0 C 15,6 C 16,1 C 85 % 1011,0 hPa 0,0 l/m 0 min 0 min 0 W/m 0,0 km/h (0 Bft) 100,00 %
22.07.2018 05:04 17,0 C 15,6 C 16,1 C 85 % 1011,0 hPa 0,0 l/m 0 min 0 min 0 W/m 0,0 km/h (0 Bft) 100,00 %
22.07.2018 05:06 16,9 C 15,6 C 16,1 C 85 % 1011,0 hPa 0,0 l/m 0 min 0 min 0 W/m 0,0 km/h (0 Bft) 100,00 %
22.07.2018 05:08 16,9 C 15,6 C 16,1 C 85 % 1011,0 hPa 0,0 l/m 0 min 0 min 0 W/m 0,0 km/h (0 Bft) 97,87 %
22.07.2018 05:10 16,9 C 15,6 C 16,1 C 85 % 1011,1 hPa 0,0 l/m 0 min 0 min 0 W/m 0,0 km/h (0 Bft) 100,00 %
22.07.2018 05:12 16,9 C 15,6 C 16,1 C 85 % 1011,1 hPa 0,0 l/m 0 min 0 min 0 W/m 0,0 km/h (0 Bft) 100,00 %
22.07.2018 05:14 16,9 C 15,6 C 16,1 C 85 % 1011,1 hPa 0,0 l/m 0 min 0 min 0 W/m 0,0 km/h (0 Bft) 97,87 %
22.07.2018 05:16 16,9 C 15,6 C 16,1 C 85 % 1011,1 hPa 0,0 l/m 0 min 0 min 0 W/m 0,0 km/h (0 Bft) 95,65 %
22.07.2018 05:18 16,8 C 15,6 C 15,6 C 85 % 1011,1 hPa 0,0 l/m 0 min 0 min 0 W/m 0,0 km/h (0 Bft) 97,87 %
22.07.2018 05:20 16,8 C 15,6 C 15,6 C 85 % 1011,1 hPa 0,0 l/m 0 min 0 min 0 W/m 0,0 km/h (0 Bft) 97,87 %
22.07.2018 05:22 16,8 C 15,6 C 15,6 C 85 % 1011,2 hPa 0,0 l/m 0 min 0 min 0 W/m 0,0 km/h (0 Bft) 95,83 %
22.07.2018 05:24 16,8 C 15,6 C 15,6 C 85 % 1011,2 hPa 0,0 l/m 0 min 0 min 0 W/m 0,0 km/h (0 Bft) 91,49 %
22.07.2018 05:26 16,8 C 15,6 C 15,6 C 85 % 1011,2 hPa 0,0 l/m 0 min 0 min 0 W/m 0,0 km/h (0 Bft) 95,65 %
22.07.2018 05:28 16,8 C 15,6 C 15,6 C 86 % 1011,3 hPa 0,0 l/m 0 min 0 min 0 W/m 0,0 km/h (0 Bft) 95,74 %
22.07.2018 05:30 16,7 C 15,6 C 15,6 C 86 % 1011,3 hPa 0,0 l/m 0 min 0 min 0 W/m 0,0 km/h (0 Bft) 95,74 %
22.07.2018 05:32 16,7 C 15,6 C 15,6 C 86 % 1011,3 hPa 0,0 l/m 0 min 0 min 0 W/m 0,0 km/h (0 Bft) 97,87 %
22.07.2018 05:34 16,7 C 15,6 C 15,6 C 86 % 1011,4 hPa 0,0 l/m 0 min 0 min 0 W/m 0,0 km/h (0 Bft) 95,74 %
22.07.2018 05:35 16,7 C 15,6 C 15,6 C 86 % 1011,4 hPa 0,0 l/m 0 min 0 min 0 W/m 0,0 km/h (0 Bft) 99,12 %
22.07.2018 05:40 16,6 C 15,6 C 15,6 C 86 % 1011,6 hPa 0,0 l/m 0 min 0 min 0 W/m 0,0 km/h (0 Bft) 91,30 %
22.07.2018 05:42 16,6 C 15,6 C 15,6 C 86 % 1011,5 hPa 0,0 l/m 0 min 0 min 1 W/m 0,0 km/h (0 Bft) 83,33 %
22.07.2018 05:44 16,6 C 15,6 C 15,6 C 86 % 1011,5 hPa 0,0 l/m 0 min 0 min 5 W/m 0,0 km/h (0 Bft) 100,00 %
22.07.2018 05:46 16,6 C 15,0 C 15,6 C 86 % 1011,6 hPa 0,0 l/m 0 min 0 min 5 W/m 2,3 km/h (1 Bft) 98,11 %
22.07.2018 05:48 16,6 C 15,0 C 15,6 C 86 % 1011,6 hPa 0,0 l/m 0 min 0 min 5 W/m 0,0 km/h (0 Bft) 94,00 %
22.07.2018 05:50 16,6 C 15,6 C 15,6 C 86 % 1011,5 hPa 0,0 l/m 0 min 0 min 7 W/m 0,0 km/h (0 Bft) 95,92 %
22.07.2018 05:52 16,5 C 15,6 C 15,6 C 86 % 1011,5 hPa 0,0 l/m 0 min 0 min 7 W/m 0,0 km/h (0 Bft) 95,74 %
22.07.2018 05:54 16,5 C 15,0 C 15,6 C 86 % 1011,6 hPa 0,0 l/m 0 min 0 min 7 W/m 0,0 km/h (0 Bft) 95,74 %
22.07.2018 05:56 16,5 C 15,0 C 15,6 C 86 % 1011,6 hPa 0,0 l/m 0 min 0 min 9 W/m 0,0 km/h (0 Bft) 95,74 %
22.07.2018 05:58 16,4 C 15,6 C 15,6 C 86 % 1011,7 hPa 0,0 l/m 0 min 0 min 9 W/m 0,0 km/h (0 Bft) 94,29 %
22.07.2018 06:00 16,4 C 15,6 C 15,6 C 86 % 1011,8 hPa 0,0 l/m 0 min 0 min 11 W/m 2,3 km/h (1 Bft) 95,74 %
22.07.2018 06:02 16,4 C 15,6 C 15,6 C 86 % 1011,8 hPa 0,0 l/m 0 min 0 min 11 W/m 2,3 km/h (1 Bft) 96,23 %
22.07.2018 06:04 16,4 C 15,6 C 15,6 C 86 % 1011,7 hPa 0,0 l/m 0 min 0 min 12 W/m 2,3 km/h (1 Bft) 95,74 %
22.07.2018 06:08 16,4 C 15,6 C 15,6 C 87 % 1011,8 hPa 0,0 l/m 0 min 0 min 14 W/m 2,3 km/h (1 Bft) 94,90 %
22.07.2018 06:10 16,3 C 15,6 C 15,6 C 87 % 1011,8 hPa 0,0 l/m 0 min 0 min 16 W/m 0,0 km/h (0 Bft) 97,22 %
22.07.2018 06:12 16,3 C 15,6 C 15,6 C 87 % 1011,7 hPa 0,0 l/m 0 min 0 min 18 W/m 0,0 km/h (0 Bft) 93,62 %
22.07.2018 06:14 16,3 C 15,6 C 15,6 C 87 % 1011,7 hPa 0,0 l/m 0 min 0 min 19 W/m 2,3 km/h (1 Bft) 93,48 %
22.07.2018 06:16 16,3 C 15,6 C 15,6 C 87 % 1011,7 hPa 0,0 l/m 0 min 0 min 20 W/m 0,0 km/h (0 Bft) 96,43 %
22.07.2018 06:22 16,3 C 15,6 C 15,6 C 88 % 1011,7 hPa 0,0 l/m 0 min 0 min 22 W/m 2,3 km/h (1 Bft) 95,14 %
22.07.2018 06:24 16,3 C 15,6 C 15,6 C 87 % 1011,8 hPa 0,0 l/m 0 min 0 min 25 W/m 2,3 km/h (1 Bft) 91,49 %
22.07.2018 06:26 16,3 C 15,6 C 15,6 C 88 % 1011,7 hPa 0,0 l/m 0 min 0 min 26 W/m 0,0 km/h (0 Bft) 95,74 %
22.07.2018 06:28 16,3 C 15,6 C 15,6 C 88 % 1011,8 hPa 0,0 l/m 0 min 0 min 27 W/m 0,0 km/h (0 Bft) 97,87 %
22.07.2018 06:30 16,3 C 15,6 C 15,6 C 88 % 1011,8 hPa 0,0 l/m 0 min 0 min 29 W/m 2,3 km/h (1 Bft) 95,74 %
22.07.2018 06:32 16,3 C 15,6 C 15,6 C 88 % 1011,9 hPa 0,0 l/m 0 min 0 min 30 W/m 2,3 km/h (1 Bft) 97,30 %
22.07.2018 06:34 16,3 C 15,6 C 16,1 C 88 % 1011,9 hPa 0,0 l/m 0 min 0 min 32 W/m 0,0 km/h (0 Bft) 97,87 %
22.07.2018 06:36 16,3 C 15,6 C 16,1 C 88 % 1012,0 hPa 0,0 l/m 0 min 0 min 33 W/m 0,0 km/h (0 Bft) 98,08 %
22.07.2018 06:38 16,3 C 16,1 C 16,1 C 88 % 1012,0 hPa 0,0 l/m 0 min 0 min 33 W/m 0,0 km/h (0 Bft) 97,87 %
22.07.2018 06:40 16,3 C 16,1 C 16,1 C 88 % 1012,0 hPa 0,0 l/m 0 min 0 min 35 W/m 0,0 km/h (0 Bft) 95,74 %
22.07.2018 06:42 16,3 C 16,1 C 16,1 C 88 % 1011,9 hPa 0,0 l/m 0 min 0 min 36 W/m 2,3 km/h (1 Bft) 97,83 %
22.07.2018 06:44 16,4 C 16,1 C 16,1 C 88 % 1012,0 hPa 0,0 l/m 0 min 0 min 39 W/m 0,0 km/h (0 Bft) 97,87 %
22.07.2018 06:46 16,4 C 16,1 C 16,1 C 88 % 1012,1 hPa 0,0 l/m 0 min 0 min 40 W/m 0,0 km/h (0 Bft) 97,83 %
22.07.2018 06:48 16,4 C 16,1 C 16,1 C 88 % 1012,1 hPa 0,0 l/m 0 min 0 min 40 W/m 2,3 km/h (1 Bft) 95,74 %
22.07.2018 06:50 16,4 C 16,1 C 16,1 C 88 % 1012,1 hPa 0,0 l/m 0 min 0 min 42 W/m 0,0 km/h (0 Bft) 95,74 %
22.07.2018 06:52 16,4 C 16,1 C 16,1 C 89 % 1012,1 hPa 0,0 l/m 0 min 0 min 43 W/m 4,5 km/h (1 Bft) 97,92 %
22.07.2018 06:54 16,4 C 16,1 C 16,1 C 89 % 1012,1 hPa 0,0 l/m 0 min 0 min 44 W/m 2,3 km/h (1 Bft) 97,87 %
22.07.2018 06:56 16,4 C 16,1 C 16,1 C 89 % 1012,1 hPa 0,0 l/m 0 min 0 min 46 W/m 0,0 km/h (0 Bft) 97,87 %
22.07.2018 06:58 16,4 C 16,1 C 16,1 C 89 % 1012,1 hPa 0,0 l/m 0 min 0 min 47 W/m 2,3 km/h (1 Bft) 97,83 %
22.07.2018 07:00 16,4 C 16,1 C 16,1 C 89 % 1012,1 hPa 0,0 l/m 0 min 0 min 48 W/m 2,3 km/h (1 Bft) 93,62 %
22.07.2018 07:02 16,4 C 16,1 C 16,1 C 89 % 1012,1 hPa 0,0 l/m 0 min 0 min 49 W/m 2,3 km/h (1 Bft) 97,96 %
22.07.2018 07:04 16,4 C 16,1 C 16,1 C 89 % 1012,1 hPa 0,0 l/m 0 min 0 min 49 W/m 0,0 km/h (0 Bft) 97,87 %
22.07.2018 07:06 16,5 C 16,1 C 16,1 C 89 % 1012,0 hPa 0,0 l/m 0 min 0 min 50 W/m 0,0 km/h (0 Bft) 97,87 %
22.07.2018 07:08 16,5 C 16,1 C 16,1 C 89 % 1012,1 hPa 0,0 l/m 0 min 0 min 53 W/m 2,3 km/h (1 Bft) 97,83 %
22.07.2018 07:10 16,5 C 16,1 C 16,1 C 89 % 1012,1 hPa 0,0 l/m 0 min 0 min 54 W/m 2,3 km/h (1 Bft) 100,00 %
22.07.2018 07:12 16,5 C 16,1 C 16,1 C 89 % 1012,1 hPa 0,0 l/m 0 min 0 min 56 W/m 0,0 km/h (0 Bft) 97,87 %
22.07.2018 07:14 16,5 C 16,1 C 16,1 C 89 % 1012,1 hPa 0,0 l/m 0 min 0 min 56 W/m 0,0 km/h (0 Bft) 97,87 %
22.07.2018 07:16 16,5 C 16,7 C 16,1 C 89 % 1012,2 hPa 0,0 l/m 0 min 0 min 56 W/m 0,0 km/h (0 Bft) 100,00 %
22.07.2018 07:18 16,5 C 16,7 C 16,1 C 89 % 1012,2 hPa 0,0 l/m 0 min 0 min 58 W/m 4,5 km/h (1 Bft) 100,00 %
22.07.2018 07:20 16,6 C 16,7 C 16,1 C 89 % 1012,2 hPa 0,0 l/m 0 min 0 min 58 W/m 4,5 km/h (1 Bft) 97,83 %
22.07.2018 07:22 16,6 C 16,7 C 16,1 C 89 % 1012,1 hPa 0,0 l/m 0 min 0 min 60 W/m 2,3 km/h (1 Bft) 100,00 %
22.07.2018 07:24 16,6 C 16,7 C 16,1 C 89 % 1012,1 hPa 0,0 l/m 0 min 0 min 62 W/m 2,3 km/h (1 Bft) 100,00 %
22.07.2018 07:26 16,6 C 16,7 C 16,1 C 89 % 1012,1 hPa 0,0 l/m 0 min 0 min 63 W/m 0,0 km/h (0 Bft) 100,00 %
22.07.2018 07:28 16,6 C 16,7 C 16,1 C 89 % 1012,1 hPa 0,0 l/m 0 min 0 min 65 W/m 6,8 km/h (2 Bft) 100,00 %
22.07.2018 07:30 16,6 C 16,7 C 16,1 C 89 % 1012,1 hPa 0,0 l/m 0 min 0 min 68 W/m 6,8 km/h (2 Bft) 100,00 %
22.07.2018 07:32 16,6 C 16,7 C 16,1 C 89 % 1012,2 hPa 0,0 l/m 0 min 0 min 69 W/m 2,3 km/h (1 Bft) 100,00 %
22.07.2018 07:34 16,7 C 16,7 C 16,1 C 89 % 1012,2 hPa 0,0 l/m 0 min 0 min 70 W/m 9,0 km/h (2 Bft) 97,83 %
22.07.2018 07:36 16,7 C 16,7 C 16,1 C 89 % 1012,3 hPa 0,0 l/m 0 min 0 min 72 W/m 4,5 km/h (1 Bft) 100,00 %
22.07.2018 07:38 16,7 C 16,7 C 16,1 C 88 % 1012,2 hPa 0,0 l/m 0 min 0 min 73 W/m 9,0 km/h (2 Bft) 100,00 %
22.07.2018 07:40 16,7 C 16,7 C 16,1 C 88 % 1012,3 hPa 0,0 l/m 0 min 0 min 72 W/m 2,3 km/h (1 Bft) 100,00 %
22.07.2018 07:42 16,7 C 16,7 C 16,1 C 88 % 1012,3 hPa 0,0 l/m 0 min 0 min 73 W/m 4,5 km/h (1 Bft) 100,00 %
22.07.2018 07:44 16,7 C 16,7 C 16,1 C 88 % 1012,3 hPa 0,0 l/m 0 min 0 min 74 W/m 6,8 km/h (2 Bft) 100,00 %
22.07.2018 07:46 16,8 C 16,7 C 16,1 C 88 % 1012,3 hPa 0,0 l/m 0 min 0 min 74 W/m 9,0 km/h (2 Bft) 100,00 %
22.07.2018 07:48 16,8 C 16,7 C 16,1 C 88 % 1012,3 hPa 0,0 l/m 0 min 0 min 74 W/m 2,3 km/h (1 Bft) 97,87 %
22.07.2018 07:50 16,8 C 16,7 C 16,7 C 88 % 1012,4 hPa 0,0 l/m 0 min 0 min 74 W/m 4,5 km/h (1 Bft) 100,00 %
22.07.2018 07:52 16,8 C 17,2 C 16,7 C 88 % 1012,3 hPa 0,0 l/m 0 min 0 min 74 W/m 6,8 km/h (2 Bft) 100,00 %
22.07.2018 07:54 16,8 C 17,2 C 16,7 C 87 % 1012,3 hPa 0,0 l/m 0 min 0 min 74 W/m 9,0 km/h (2 Bft) 97,87 %
22.07.2018 07:56 16,9 C 17,2 C 16,7 C 87 % 1012,2 hPa 0,0 l/m 0 min 0 min 74 W/m 4,5 km/h (1 Bft) 100,00 %
22.07.2018 07:58 16,9 C 17,2 C 16,7 C 87 % 1012,3 hPa 0,0 l/m 0 min 0 min 74 W/m 6,8 km/h (2 Bft) 100,00 %
22.07.2018 08:00 16,9 C 17,2 C 16,7 C 87 % 1012,2 hPa 0,0 l/m 0 min 0 min 74 W/m 9,0 km/h (2 Bft) 100,00 %
22.07.2018 08:02 16,9 C 17,2 C 16,7 C 87 % 1012,2 hPa 0,0 l/m 0 min 0 min 76 W/m 6,8 km/h (2 Bft) 100,00 %
22.07.2018 08:04 17,0 C 17,2 C 16,7 C 87 % 1012,4 hPa 0,0 l/m 0 min 0 min 76 W/m 6,8 km/h (2 Bft) 97,87 %
22.07.2018 08:06 17,0 C 17,2 C 16,7 C 87 % 1012,3 hPa 0,0 l/m 0 min 0 min 76 W/m 4,5 km/h (1 Bft) 97,87 %
22.07.2018 08:08 17,1 C 17,2 C 16,7 C 87 % 1012,3 hPa 0,0 l/m 0 min 0 min 77 W/m 4,5 km/h (1 Bft) 97,87 %
22.07.2018 08:10 17,1 C 17,2 C 16,7 C 87 % 1012,4 hPa 0,0 l/m 0 min 0 min 78 W/m 4,5 km/h (1 Bft) 97,83 %
22.07.2018 08:12 17,1 C 17,8 C 16,7 C 87 % 1012,5 hPa 0,0 l/m 0 min 0 min 80 W/m 4,5 km/h (1 Bft) 97,87 %
22.07.2018 08:14 17,1 C 17,8 C 16,7 C 87 % 1012,5 hPa 0,0 l/m 0 min 0 min 81 W/m 11,3 km/h (2 Bft) 97,87 %
22.07.2018 08:16 17,2 C 17,8 C 16,7 C 87 % 1012,5 hPa 0,0 l/m 0 min 0 min 83 W/m 2,3 km/h (1 Bft) 97,87 %
22.07.2018 08:18 17,2 C 17,8 C 16,7 C 87 % 1012,4 hPa 0,0 l/m 0 min 0 min 84 W/m 6,8 km/h (2 Bft) 100,00 %
22.07.2018 08:20 17,2 C 17,8 C 16,7 C 87 % 1012,5 hPa 0,0 l/m 0 min 0 min 86 W/m 4,5 km/h (1 Bft) 95,74 %
22.07.2018 08:22 17,2 C 17,8 C 17,2 C 87 % 1012,5 hPa 0,0 l/m 0 min 0 min 89 W/m 4,5 km/h (1 Bft) 97,83 %
22.07.2018 08:24 17,3 C 17,8 C 17,2 C 87 % 1012,6 hPa 0,0 l/m 0 min 0 min 90 W/m 6,8 km/h (2 Bft) 97,87 %
22.07.2018 08:26 17,3 C 18,3 C 17,2 C 87 % 1012,5 hPa 0,0 l/m 0 min 0 min 114 W/m 6,8 km/h (2 Bft) 97,87 %
22.07.2018 08:28 17,4 C 18,3 C 17,2 C 86 % 1012,5 hPa 0,0 l/m 0 min 0 min 133 W/m 4,5 km/h (1 Bft) 97,87 %
22.07.2018 08:30 17,4 C 18,3 C 17,2 C 86 % 1012,6 hPa 0,0 l/m 0 min 0 min 143 W/m 9,0 km/h (2 Bft) 97,87 %
22.07.2018 08:32 17,4 C 18,3 C 17,2 C 86 % 1012,5 hPa 0,0 l/m 2 min 0 min 260 W/m 4,5 km/h (1 Bft) 98,11 %
22.07.2018 08:34 17,5 C 18,3 C 17,2 C 86 % 1012,6 hPa 0,0 l/m 2 min 0 min 277 W/m 4,5 km/h (1 Bft) 97,87 %
22.07.2018 08:36 17,6 C 18,3 C 17,2 C 86 % 1012,6 hPa 0,0 l/m 2 min 0 min 281 W/m 6,8 km/h (2 Bft) 97,87 %
22.07.2018 08:38 17,6 C 18,9 C 17,2 C 86 % 1012,6 hPa 0,0 l/m 2 min 0 min 289 W/m 4,5 km/h (1 Bft) 97,87 %
22.07.2018 08:40 17,6 C 18,9 C 17,2 C 86 % 1012,5 hPa 0,0 l/m 2 min 0 min 296 W/m 4,5 km/h (1 Bft) 95,74 %
22.07.2018 08:42 17,7 C 18,9 C 17,2 C 86 % 1012,6 hPa 0,0 l/m 2 min 0 min 301 W/m 6,8 km/h (2 Bft) 97,83 %
22.07.2018 08:44 17,7 C 18,9 C 17,8 C 86 % 1012,6 hPa 0,0 l/m 2 min 0 min 308 W/m 4,5 km/h (1 Bft) 97,87 %
22.07.2018 08:46 17,8 C 18,9 C 17,8 C 86 % 1012,6 hPa 0,0 l/m 2 min 0 min 313 W/m 2,3 km/h (1 Bft) 97,87 %
22.07.2018 08:48 17,8 C 19,4 C 17,8 C 86 % 1012,6 hPa 0,0 l/m 2 min 0 min 319 W/m 2,3 km/h (1 Bft) 97,87 %
22.07.2018 08:50 17,9 C 19,4 C 17,8 C 86 % 1012,6 hPa 0,0 l/m 2 min 0 min 319 W/m 11,3 km/h (2 Bft) 95,74 %
22.07.2018 08:52 17,9 C 19,4 C 17,8 C 86 % 1012,7 hPa 0,0 l/m 2 min 0 min 327 W/m 4,5 km/h (1 Bft) 97,87 %
22.07.2018 08:54 18,0 C 19,4 C 17,8 C 85 % 1012,6 hPa 0,0 l/m 2 min 0 min 337 W/m 4,5 km/h (1 Bft) 97,83 %
22.07.2018 08:56 18,1 C 19,4 C 17,8 C 85 % 1012,6 hPa 0,0 l/m 2 min 0 min 339 W/m 6,8 km/h (2 Bft) 97,87 %
22.07.2018 08:58 18,2 C 20,0 C 18,3 C 85 % 1012,7 hPa 0,0 l/m 2 min 0 min 345 W/m 9,0 km/h (2 Bft) 97,87 %
22.07.2018 09:00 18,2 C 20,0 C 18,3 C 84 % 1012,8 hPa 0,0 l/m 2 min 0 min 344 W/m 6,8 km/h (2 Bft) 97,87 %
22.07.2018 09:02 18,3 C 20,0 C 18,3 C 84 % 1012,8 hPa 0,0 l/m 2 min 0 min 350 W/m 9,0 km/h (2 Bft) 97,96 %
22.07.2018 09:04 18,3 C 20,0 C 18,3 C 84 % 1012,8 hPa 0,0 l/m 2 min 0 min 358 W/m 9,0 km/h (2 Bft) 95,74 %
22.07.2018 09:06 18,4 C 20,0 C 18,3 C 83 % 1012,8 hPa 0,0 l/m 2 min 0 min 344 W/m 9,0 km/h (2 Bft) 97,83 %
22.07.2018 09:08 18,5 C 20,6 C 18,3 C 83 % 1012,8 hPa 0,0 l/m 2 min 0 min 316 W/m 9,0 km/h (2 Bft) 93,62 %
22.07.2018 09:10 18,6 C 20,6 C 18,3 C 83 % 1012,8 hPa 0,0 l/m 2 min 0 min 300 W/m 9,0 km/h (2 Bft) 91,49 %
22.07.2018 09:12 18,6 C 20,6 C 18,3 C 83 % 1012,7 hPa 0,0 l/m 2 min 0 min 269 W/m 6,8 km/h (2 Bft) 89,36 %
22.07.2018 09:14 18,7 C 20,6 C 18,9 C 82 % 1012,7 hPa 0,0 l/m 2 min 0 min 252 W/m 4,5 km/h (1 Bft) 91,49 %
22.07.2018 09:16 18,8 C 20,6 C 18,9 C 81 % 1012,7 hPa 0,0 l/m 2 min 0 min 363 W/m 6,8 km/h (2 Bft) 93,62 %
22.07.2018 09:18 18,9 C 21,1 C 18,9 C 81 % 1012,7 hPa 0,0 l/m 2 min 0 min 383 W/m 9,0 km/h (2 Bft) 95,65 %
22.07.2018 09:20 18,9 C 21,1 C 18,9 C 81 % 1012,8 hPa 0,0 l/m 2 min 0 min 400 W/m 6,8 km/h (2 Bft) 97,87 %
22.07.2018 09:22 19,1 C 21,1 C 18,9 C 81 % 1012,7 hPa 0,0 l/m 2 min 0 min 428 W/m 6,8 km/h (2 Bft) 93,62 %
22.07.2018 09:24 19,2 C 21,7 C 18,9 C 80 % 1012,9 hPa 0,0 l/m 2 min 0 min 436 W/m 9,0 km/h (2 Bft) 95,74 %
22.07.2018 09:26 19,2 C 21,1 C 18,9 C 79 % 1012,8 hPa 0,0 l/m 2 min 0 min 434 W/m 11,3 km/h (2 Bft) 93,62 %
22.07.2018 09:28 19,3 C 21,7 C 18,9 C 79 % 1012,8 hPa 0,0 l/m 2 min 0 min 438 W/m 9,0 km/h (2 Bft) 94,29 %
22.07.2018 09:30 19,4 C 21,7 C 18,9 C 78 % 1012,7 hPa 0,0 l/m 2 min 0 min 431 W/m 6,8 km/h (2 Bft) 96,61 %
22.07.2018 09:32 19,5 C 21,7 C 18,9 C 78 % 1012,8 hPa 0,0 l/m 2 min 0 min 435 W/m 6,8 km/h (2 Bft) 94,59 %
22.07.2018 09:34 19,6 C 21,7 C 19,4 C 77 % 1012,8 hPa 0,0 l/m 2 min 0 min 432 W/m 9,0 km/h (2 Bft) 95,74 %
22.07.2018 09:36 19,7 C 21,7 C 19,4 C 77 % 1012,8 hPa 0,0 l/m 2 min 0 min 419 W/m 9,0 km/h (2 Bft) 94,34 %
22.07.2018 09:38 19,8 C 21,7 C 18,9 C 77 % 1012,8 hPa 0,0 l/m 2 min 0 min 429 W/m 11,3 km/h (2 Bft) 97,87 %
22.07.2018 09:40 19,8 C 21,7 C 19,4 C 77 % 1012,8 hPa 0,0 l/m 2 min 0 min 455 W/m 6,8 km/h (2 Bft) 95,74 %
22.07.2018 09:42 19,9 C 21,7 C 19,4 C 77 % 1012,8 hPa 0,0 l/m 2 min 0 min 459 W/m 9,0 km/h (2 Bft) 93,48 %
22.07.2018 09:44 20,0 C 21,7 C 19,4 C 76 % 1012,8 hPa 0,0 l/m 2 min 0 min 465 W/m 6,8 km/h (2 Bft) 93,62 %
22.07.2018 09:46 20,1 C 21,7 C 19,4 C 75 % 1012,8 hPa 0,0 l/m 2 min 0 min 470 W/m 6,8 km/h (2 Bft) 95,74 %
22.07.2018 09:48 20,1 C 22,2 C 20,0 C 74 % 1012,7 hPa 0,0 l/m 2 min 0 min 481 W/m 6,8 km/h (2 Bft) 97,87 %
22.07.2018 09:50 20,2 C 22,2 C 20,0 C 74 % 1012,7 hPa 0,0 l/m 2 min 0 min 475 W/m 11,3 km/h (2 Bft) 97,87 %
22.07.2018 09:52 20,3 C 22,2 C 19,4 C 74 % 1012,7 hPa 0,0 l/m 2 min 0 min 465 W/m 11,3 km/h (2 Bft) 93,62 %
22.07.2018 09:54 20,3 C 22,2 C 19,4 C 73 % 1012,7 hPa 0,0 l/m 2 min 0 min 448 W/m 11,3 km/h (2 Bft) 97,83 %
22.07.2018 09:56 20,4 C 22,2 C 19,4 C 72 % 1012,7 hPa 0,0 l/m 2 min 0 min 443 W/m 11,3 km/h (2 Bft) 97,87 %
22.07.2018 09:58 20,5 C 22,2 C 19,4 C 72 % 1012,7 hPa 0,0 l/m 2 min 0 min 454 W/m 9,0 km/h (2 Bft) 97,87 %
22.07.2018 10:00 20,6 C 22,2 C 20,0 C 72 % 1012,7 hPa 0,0 l/m 2 min 0 min 490 W/m 11,3 km/h (2 Bft) 97,87 %
22.07.2018 10:02 20,6 C 22,2 C 20,0 C 72 % 1012,7 hPa 0,0 l/m 2 min 0 min 508 W/m 11,3 km/h (2 Bft) 95,74 %
22.07.2018 10:04 20,7 C 22,8 C 20,0 C 72 % 1012,7 hPa 0,0 l/m 2 min 0 min 510 W/m 9,0 km/h (2 Bft) 97,87 %
22.07.2018 10:06 20,8 C 22,2 C 20,0 C 72 % 1012,7 hPa 0,0 l/m 2 min 0 min 475 W/m 6,8 km/h (2 Bft) 100,00 %
22.07.2018 10:08 20,9 C 22,8 C 20,0 C 73 % 1012,7 hPa 0,0 l/m 2 min 0 min 478 W/m 6,8 km/h (2 Bft) 97,87 %
22.07.2018 10:10 21,0 C 22,8 C 20,6 C 73 % 1012,7 hPa 0,0 l/m 2 min 0 min 488 W/m 6,8 km/h (2 Bft) 100,00 %
22.07.2018 10:12 21,1 C 23,3 C 20,6 C 73 % 1012,7 hPa 0,0 l/m 2 min 0 min 493 W/m 9,0 km/h (2 Bft) 100,00 %
22.07.2018 10:14 21,2 C 23,9 C 20,6 C 72 % 1012,7 hPa 0,0 l/m 2 min 0 min 530 W/m 9,0 km/h (2 Bft) 97,87 %
22.07.2018 10:16 21,3 C 25,0 C 20,6 C 72 % 1012,7 hPa 0,0 l/m 2 min 0 min 543 W/m 6,8 km/h (2 Bft) 100,00 %
22.07.2018 10:18 21,3 C 24,4 C 20,0 C 71 % 1012,7 hPa 0,0 l/m 2 min 0 min 530 W/m 6,8 km/h (2 Bft) 100,00 %
22.07.2018 10:20 21,4 C 23,9 C 20,6 C 71 % 1012,7 hPa 0,0 l/m 2 min 0 min 551 W/m 4,5 km/h (1 Bft) 100,00 %
22.07.2018 10:22 21,5 C 23,9 C 20,6 C 71 % 1012,7 hPa 0,0 l/m 2 min 0 min 542 W/m 6,8 km/h (2 Bft) 100,00 %
22.07.2018 10:24 21,6 C 23,9 C 20,6 C 71 % 1012,6 hPa 0,0 l/m 2 min 0 min 551 W/m 6,8 km/h (2 Bft) 100,00 %
22.07.2018 10:26 21,6 C 23,9 C 20,6 C 71 % 1012,7 hPa 0,0 l/m 2 min 0 min 559 W/m 9,0 km/h (2 Bft) 100,00 %
22.07.2018 10:28 21,7 C 23,9 C 20,6 C 70 % 1012,7 hPa 0,0 l/m 2 min 0 min 569 W/m 9,0 km/h (2 Bft) 100,00 %
22.07.2018 10:30 21,8 C 24,4 C 20,6 C 69 % 1012,7 hPa 0,0 l/m 2 min 0 min 571 W/m 9,0 km/h (2 Bft) 100,00 %
22.07.2018 10:32 21,9 C 24,4 C 20,6 C 69 % 1012,7 hPa 0,0 l/m 2 min 0 min 577 W/m 6,8 km/h (2 Bft) 100,00 %
22.07.2018 10:34 21,9 C 24,4 C 20,6 C 68 % 1012,7 hPa 0,0 l/m 2 min 0 min 583 W/m 9,0 km/h (2 Bft) 100,00 %
22.07.2018 10:36 22,0 C 24,4 C 20,6 C 68 % 1012,6 hPa 0,0 l/m 2 min 0 min 588 W/m 11,3 km/h (2 Bft) 100,00 %
22.07.2018 10:38 22,1 C 25,0 C 20,6 C 68 % 1012,7 hPa 0,0 l/m 2 min 0 min 589 W/m 9,0 km/h (2 Bft) 100,00 %
22.07.2018 10:40 22,1 C 25,6 C 20,6 C 67 % 1012,7 hPa 0,0 l/m 2 min 0 min 592 W/m 13,5 km/h (3 Bft) 100,00 %
22.07.2018 10:42 22,2 C 26,7 C 21,1 C 66 % 1012,6 hPa 0,0 l/m 2 min 0 min 594 W/m 4,5 km/h (1 Bft) 100,00 %
22.07.2018 10:44 22,2 C 28,3 C 21,1 C 66 % 1012,6 hPa 0,0 l/m 2 min 0 min 599 W/m 4,5 km/h (1 Bft) 100,00 %
22.07.2018 10:46 22,3 C 29,4 C 21,1 C 66 % 1012,7 hPa 0,0 l/m 2 min 0 min 599 W/m 4,5 km/h (1 Bft) 100,00 %
22.07.2018 10:48 22,4 C 28,9 C 21,1 C 67 % 1012,7 hPa 0,0 l/m 2 min 0 min 594 W/m 4,5 km/h (1 Bft) 97,87 %
22.07.2018 10:50 22,5 C 28,9 C 21,1 C 67 % 1012,7 hPa 0,0 l/m 2 min 0 min 605 W/m 11,3 km/h (2 Bft) 100,00 %
22.07.2018 10:52 22,6 C 29,4 C 21,1 C 67 % 1012,7 hPa 0,0 l/m 2 min 0 min 621 W/m 6,8 km/h (2 Bft) 100,00 %
22.07.2018 10:54 22,7 C 28,9 C 21,1 C 66 % 1012,7 hPa 0,0 l/m 2 min 0 min 626 W/m 6,8 km/h (2 Bft) 97,87 %
22.07.2018 10:56 22,8 C 29,4 C 21,1 C 66 % 1012,7 hPa 0,0 l/m 2 min 0 min 630 W/m 6,8 km/h (2 Bft) 97,87 %
22.07.2018 10:58 23,0 C 30,0 C 21,7 C 66 % 1012,7 hPa 0,0 l/m 2 min 0 min 630 W/m 6,8 km/h (2 Bft) 100,00 %
22.07.2018 11:00 23,2 C 30,6 C 21,7 C 65 % 1012,7 hPa 0,0 l/m 2 min 0 min 630 W/m 4,5 km/h (1 Bft) 100,00 %
22.07.2018 11:02 23,3 C 30,6 C 21,7 C 65 % 1012,7 hPa 0,0 l/m 2 min 0 min 642 W/m 9,0 km/h (2 Bft) 100,00 %
22.07.2018 11:04 23,4 C 30,6 C 21,7 C 65 % 1012,7 hPa 0,0 l/m 2 min 0 min 550 W/m 9,0 km/h (2 Bft) 100,00 %
22.07.2018 11:06 23,6 C 29,4 C 21,7 C 63 % 1012,7 hPa 0,0 l/m 2 min 0 min 519 W/m 6,8 km/h (2 Bft) 100,00 %
22.07.2018 11:08 23,7 C 29,4 C 21,7 C 63 % 1012,7 hPa 0,0 l/m 2 min 0 min 536 W/m 6,8 km/h (2 Bft) 100,00 %
22.07.2018 11:10 23,8 C 30,0 C 21,7 C 63 % 1012,8 hPa 0,0 l/m 2 min 0 min 560 W/m 6,8 km/h (2 Bft) 97,87 %
22.07.2018 11:12 23,9 C 30,6 C 21,7 C 62 % 1012,7 hPa 0,0 l/m 2 min 0 min 607 W/m 6,8 km/h (2 Bft) 97,87 %
22.07.2018 11:14 24,1 C 30,6 C 21,7 C 62 % 1012,7 hPa 0,0 l/m 2 min 0 min 582 W/m 9,0 km/h (2 Bft) 97,87 %
22.07.2018 11:16 24,2 C 31,1 C 21,7 C 61 % 1012,7 hPa 0,0 l/m 2 min 0 min 589 W/m 9,0 km/h (2 Bft) 97,83 %
22.07.2018 11:18 24,3 C 31,7 C 21,7 C 62 % 1012,7 hPa 0,0 l/m 2 min 0 min 590 W/m 6,8 km/h (2 Bft) 100,00 %
22.07.2018 11:20 24,4 C 32,2 C 21,7 C 62 % 1012,8 hPa 0,0 l/m 2 min 0 min 575 W/m 9,0 km/h (2 Bft) 100,00 %
22.07.2018 11:22 24,5 C 32,2 C 21,7 C 61 % 1012,8 hPa 0,0 l/m 2 min 0 min 636 W/m 6,8 km/h (2 Bft) 95,74 %
22.07.2018 11:24 24,6 C 32,2 C 22,2 C 60 % 1012,8 hPa 0,0 l/m 2 min 0 min 659 W/m 6,8 km/h (2 Bft) 97,87 %
22.07.2018 11:26 24,7 C 31,7 C 22,2 C 59 % 1012,8 hPa 0,0 l/m 2 min 0 min 694 W/m 6,8 km/h (2 Bft) 95,74 %
22.07.2018 11:28 24,8 C 32,2 C 22,2 C 59 % 1012,8 hPa 0,0 l/m 2 min 0 min 693 W/m 9,0 km/h (2 Bft) 100,00 %
22.07.2018 11:30 24,9 C 31,7 C 22,2 C 57 % 1012,7 hPa 0,0 l/m 2 min 0 min 689 W/m 4,5 km/h (1 Bft) 97,87 %
22.07.2018 11:32 25,1 C 32,2 C 22,8 C 56 % 1012,8 hPa 0,0 l/m 2 min 0 min 691 W/m 9,0 km/h (2 Bft) 97,87 %
22.07.2018 11:34 25,1 C 31,7 C 22,8 C 55 % 1012,8 hPa 0,0 l/m 2 min 0 min 651 W/m 6,8 km/h (2 Bft) 97,87 %
22.07.2018 11:36 25,2 C 32,2 C 22,2 C 56 % 1012,8 hPa 0,0 l/m 2 min 0 min 660 W/m 11,3 km/h (2 Bft) 97,87 %
22.07.2018 11:38 25,3 C 31,7 C 22,8 C 57 % 1012,9 hPa 0,0 l/m 2 min 0 min 642 W/m 11,3 km/h (2 Bft) 95,74 %
22.07.2018 11:40 25,4 C 32,8 C 22,2 C 58 % 1012,8 hPa 0,0 l/m 2 min 0 min 652 W/m 6,8 km/h (2 Bft) 93,48 %
22.07.2018 11:42 25,5 C 31,7 C 22,8 C 55 % 1012,8 hPa 0,0 l/m 2 min 0 min 691 W/m 4,5 km/h (1 Bft) 91,49 %
22.07.2018 11:44 25,6 C 31,7 C 22,8 C 55 % 1012,8 hPa 0,0 l/m 2 min 0 min 668 W/m 6,8 km/h (2 Bft) 95,74 %
22.07.2018 11:46 25,7 C 32,2 C 22,8 C 54 % 1012,8 hPa 0,0 l/m 2 min 0 min 679 W/m 4,5 km/h (1 Bft) 93,62 %
22.07.2018 11:48 25,8 C 33,3 C 22,8 C 56 % 1012,8 hPa 0,0 l/m 2 min 0 min 717 W/m 6,8 km/h (2 Bft) 95,74 %
22.07.2018 11:50 25,9 C 33,3 C 22,8 C 55 % 1012,8 hPa 0,0 l/m 2 min 0 min 721 W/m 6,8 km/h (2 Bft) 95,74 %
22.07.2018 11:52 26,0 C 33,9 C 22,8 C 55 % 1012,9 hPa 0,0 l/m 2 min 0 min 723 W/m 13,5 km/h (3 Bft) 95,65 %
22.07.2018 11:54 26,1 C 34,4 C 22,8 C 55 % 1012,9 hPa 0,0 l/m 2 min 0 min 725 W/m 4,5 km/h (1 Bft) 95,74 %
22.07.2018 11:56 26,3 C 35,0 C 22,8 C 55 % 1012,9 hPa 0,0 l/m 2 min 0 min 729 W/m 2,3 km/h (1 Bft) 93,62 %
22.07.2018 11:58 26,4 C 35,0 C 22,8 C 54 % 1012,9 hPa 0,0 l/m 2 min 0 min 741 W/m 9,0 km/h (2 Bft) 95,74 %
22.07.2018 12:00 26,5 C 35,6 C 22,8 C 54 % 1012,8 hPa 0,0 l/m 2 min 0 min 739 W/m 9,0 km/h (2 Bft) 95,74 %
22.07.2018 12:02 26,6 C 35,0 C 22,8 C 54 % 1012,8 hPa 0,0 l/m 2 min 0 min 741 W/m 9,0 km/h (2 Bft) 91,49 %
22.07.2018 12:04 26,7 C 35,0 C 22,8 C 54 % 1012,8 hPa 0,0 l/m 2 min 0 min 739 W/m 4,5 km/h (1 Bft) 95,65 %
22.07.2018 12:08 26,9 C 34,4 C 23,3 C 53 % 1012,8 hPa 0,0 l/m 4 min 0 min 729 W/m 11,3 km/h (2 Bft) 95,00 %
22.07.2018 12:10 27,0 C 35,0 C 23,3 C 53 % 1012,8 hPa 0,0 l/m 2 min 0 min 716 W/m 9,0 km/h (2 Bft) 95,74 %
22.07.2018 12:12 27,1 C 35,6 C 23,3 C 54 % 1012,8 hPa 0,0 l/m 2 min 0 min 748 W/m 4,5 km/h (1 Bft) 97,14 %
22.07.2018 12:14 27,1 C 35,6 C 23,3 C 54 % 1012,8 hPa 0,0 l/m 2 min 0 min 759 W/m 18,0 km/h (3 Bft) 93,44 %
22.07.2018 12:16 27,2 C 34,4 C 23,3 C 52 % 1012,8 hPa 0,0 l/m 2 min 0 min 758 W/m 20,3 km/h (4 Bft) 95,74 %
22.07.2018 12:18 27,2 C 35,0 C 23,3 C 52 % 1012,8 hPa 0,0 l/m 2 min 0 min 755 W/m 15,8 km/h (3 Bft) 93,62 %
22.07.2018 12:20 27,3 C 33,9 C 23,3 C 52 % 1012,8 hPa 0,0 l/m 2 min 0 min 760 W/m 9,0 km/h (2 Bft) 93,62 %
22.07.2018 12:22 27,3 C 33,9 C 23,3 C 52 % 1012,8 hPa 0,0 l/m 2 min 0 min 756 W/m 13,5 km/h (3 Bft) 95,83 %
22.07.2018 12:24 27,4 C 34,4 C 23,3 C 51 % 1012,8 hPa 0,0 l/m 2 min 0 min 694 W/m 4,5 km/h (1 Bft) 95,74 %
22.07.2018 12:26 27,4 C 35,0 C 23,3 C 52 % 1012,8 hPa 0,0 l/m 2 min 0 min 617 W/m 9,0 km/h (2 Bft) 93,48 %
22.07.2018 12:28 27,4 C 32,8 C 23,9 C 50 % 1012,8 hPa 0,0 l/m 2 min 0 min 617 W/m 9,0 km/h (2 Bft) 97,87 %
22.07.2018 12:30 27,5 C 33,9 C 23,9 C 52 % 1012,9 hPa 0,0 l/m 2 min 0 min 697 W/m 9,0 km/h (2 Bft) 97,87 %
22.07.2018 12:32 27,5 C 33,9 C 23,9 C 51 % 1012,9 hPa 0,0 l/m 2 min 0 min 783 W/m 13,5 km/h (3 Bft) 97,87 %
22.07.2018 12:34 27,5 C 34,4 C 23,9 C 50 % 1012,9 hPa 0,0 l/m 2 min 0 min 786 W/m 9,0 km/h (2 Bft) 93,62 %
22.07.2018 12:36 27,6 C 35,0 C 23,9 C 51 % 1012,8 hPa 0,0 l/m 2 min 0 min 782 W/m 9,0 km/h (2 Bft) 100,00 %
22.07.2018 12:38 27,6 C 33,9 C 23,9 C 50 % 1012,8 hPa 0,0 l/m 2 min 0 min 780 W/m 6,8 km/h (2 Bft) 95,74 %
22.07.2018 12:40 27,6 C 34,4 C 23,9 C 51 % 1012,9 hPa 0,0 l/m 2 min 0 min 784 W/m 13,5 km/h (3 Bft) 97,87 %
22.07.2018 12:42 27,6 C 34,4 C 23,9 C 51 % 1012,8 hPa 0,0 l/m 2 min 0 min 785 W/m 11,3 km/h (2 Bft) 97,87 %
22.07.2018 12:44 27,6 C 34,4 C 23,9 C 51 % 1012,8 hPa 0,0 l/m 2 min 0 min 790 W/m 9,0 km/h (2 Bft) 95,74 %
22.07.2018 12:46 27,6 C 34,4 C 23,9 C 50 % 1012,8 hPa 0,0 l/m 2 min 0 min 795 W/m 11,3 km/h (2 Bft) 97,87 %
22.07.2018 12:48 27,6 C 33,9 C 23,9 C 51 % 1012,8 hPa 0,0 l/m 2 min 0 min 801 W/m 9,0 km/h (2 Bft) 97,83 %
22.07.2018 12:50 27,6 C 34,4 C 23,9 C 51 % 1012,8 hPa 0,0 l/m 2 min 0 min 808 W/m 9,0 km/h (2 Bft) 97,87 %
22.07.2018 12:52 27,6 C 34,4 C 24,4 C 51 % 1012,8 hPa 0,0 l/m 2 min 0 min 811 W/m 15,8 km/h (3 Bft) 97,87 %
22.07.2018 12:54 27,6 C 35,0 C 24,4 C 50 % 1012,7 hPa 0,0 l/m 2 min 0 min 809 W/m 9,0 km/h (2 Bft) 97,87 %
22.07.2018 12:56 27,7 C 35,0 C 24,4 C 52 % 1012,9 hPa 0,0 l/m 2 min 0 min 813 W/m 9,0 km/h (2 Bft) 97,87 %
22.07.2018 12:58 27,7 C 35,6 C 24,4 C 51 % 1012,8 hPa 0,0 l/m 2 min 0 min 814 W/m 6,8 km/h (2 Bft) 97,87 %
22.07.2018 13:00 27,7 C 35,6 C 24,4 C 52 % 1012,8 hPa 0,0 l/m 2 min 0 min 818 W/m 11,3 km/h (2 Bft) 97,83 %
22.07.2018 13:02 27,7 C 35,0 C 24,4 C 51 % 1012,8 hPa 0,0 l/m 2 min 0 min 821 W/m 9,0 km/h (2 Bft) 97,87 %
22.07.2018 13:04 27,8 C 35,0 C 24,4 C 52 % 1012,8 hPa 0,0 l/m 2 min 0 min 833 W/m 4,5 km/h (1 Bft) 97,87 %
22.07.2018 13:06 27,8 C 35,6 C 24,4 C 51 % 1012,8 hPa 0,0 l/m 2 min 0 min 825 W/m 9,0 km/h (2 Bft) 94,59 %
22.07.2018 13:08 27,8 C 35,6 C 24,4 C 52 % 1012,8 hPa 0,0 l/m 2 min 0 min 827 W/m 11,3 km/h (2 Bft) 97,87 %
22.07.2018 13:10 27,8 C 35,0 C 24,4 C 51 % 1012,8 hPa 0,0 l/m 2 min 0 min 779 W/m 20,3 km/h (4 Bft) 97,87 %
22.07.2018 13:12 27,8 C 34,4 C 24,4 C 50 % 1012,8 hPa 0,0 l/m 2 min 0 min 778 W/m 15,8 km/h (3 Bft) 97,87 %
22.07.2018 13:14 27,8 C 33,3 C 24,4 C 50 % 1012,7 hPa 0,0 l/m 2 min 0 min 714 W/m 11,3 km/h (2 Bft) 97,83 %
22.07.2018 13:16 27,8 C 31,7 C 25,0 C 50 % 1012,7 hPa 0,0 l/m 2 min 0 min 698 W/m 9,0 km/h (2 Bft) 97,87 %
22.07.2018 13:18 27,8 C 32,2 C 24,4 C 51 % 1012,8 hPa 0,0 l/m 2 min 0 min 653 W/m 15,8 km/h (3 Bft) 97,87 %
22.07.2018 13:20 27,8 C 32,8 C 25,0 C 51 % 1012,7 hPa 0,0 l/m 2 min 0 min 797 W/m 15,8 km/h (3 Bft) 95,74 %
22.07.2018 13:22 27,7 C 33,9 C 25,0 C 51 % 1012,7 hPa 0,0 l/m 2 min 0 min 875 W/m 11,3 km/h (2 Bft) 97,87 %
22.07.2018 13:24 27,7 C 30,0 C 24,4 C 51 % 1012,7 hPa 0,0 l/m 2 min 0 min 783 W/m 11,3 km/h (2 Bft) 97,87 %
22.07.2018 13:26 27,6 C 30,0 C 24,4 C 52 % 1012,7 hPa 0,0 l/m 0 min 0 min 164 W/m 4,5 km/h (1 Bft) 97,83 %
22.07.2018 13:28 27,6 C 32,2 C 24,4 C 52 % 1012,7 hPa 0,0 l/m 2 min 0 min 755 W/m 6,8 km/h (2 Bft) 100,00 %
22.07.2018 13:30 27,6 C 31,7 C 24,4 C 52 % 1012,6 hPa 0,0 l/m 2 min 0 min 863 W/m 9,0 km/h (2 Bft) 97,87 %
22.07.2018 13:32 27,5 C 32,8 C 24,4 C 52 % 1012,6 hPa 0,0 l/m 2 min 0 min 876 W/m 13,5 km/h (3 Bft) 100,00 %
22.07.2018 13:34 27,5 C 33,3 C 25,0 C 53 % 1012,7 hPa 0,0 l/m 2 min 0 min 899 W/m 15,8 km/h (3 Bft) 100,00 %
22.07.2018 13:36 27,5 C 32,8 C 25,0 C 53 % 1012,7 hPa 0,0 l/m 2 min 0 min 893 W/m 9,0 km/h (2 Bft) 100,00 %
22.07.2018 13:38 27,5 C 31,1 C 25,0 C 52 % 1012,7 hPa 0,0 l/m 2 min 0 min 905 W/m 11,3 km/h (2 Bft) 98,08 %
22.07.2018 13:40 27,6 C 30,6 C 25,0 C 53 % 1012,6 hPa 0,0 l/m 2 min 0 min 911 W/m 6,8 km/h (2 Bft) 100,00 %
22.07.2018 13:42 27,6 C 29,4 C 25,6 C 53 % 1012,7 hPa 0,0 l/m 2 min 0 min 915 W/m 13,5 km/h (3 Bft) 100,00 %
22.07.2018 13:44 27,6 C 28,9 C 25,6 C 51 % 1012,7 hPa 0,0 l/m 2 min 0 min 917 W/m 6,8 km/h (2 Bft) 100,00 %
22.07.2018 13:46 27,6 C 28,3 C 25,6 C 51 % 1012,7 hPa 0,0 l/m 2 min 0 min 918 W/m 11,3 km/h (2 Bft) 100,00 %
22.07.2018 13:48 27,7 C 28,3 C 25,6 C 53 % 1012,6 hPa 0,0 l/m 2 min 0 min 885 W/m 6,8 km/h (2 Bft) 97,83 %
22.07.2018 13:50 27,7 C 28,3 C 25,6 C 51 % 1012,6 hPa 0,0 l/m 2 min 0 min 898 W/m 6,8 km/h (2 Bft) 100,00 %
22.07.2018 13:52 27,7 C 28,3 C 25,0 C 52 % 1012,6 hPa 0,0 l/m 2 min 0 min 912 W/m 9,0 km/h (2 Bft) 100,00 %
22.07.2018 13:54 27,7 C 28,3 C 25,0 C 52 % 1012,6 hPa 0,0 l/m 2 min 0 min 857 W/m 11,3 km/h (2 Bft) 100,00 %
22.07.2018 13:56 27,7 C 28,3 C 25,0 C 52 % 1012,6 hPa 0,0 l/m 2 min 0 min 756 W/m 9,0 km/h (2 Bft) 100,00 %
22.07.2018 13:58 27,7 C 28,3 C 25,0 C 50 % 1012,6 hPa 0,0 l/m 2 min 0 min 842 W/m 9,0 km/h (2 Bft) 100,00 %
22.07.2018 14:00 27,7 C 28,3 C 25,0 C 51 % 1012,5 hPa 0,0 l/m 2 min 0 min 943 W/m 15,8 km/h (3 Bft) 100,00 %
22.07.2018 14:02 27,7 C 27,8 C 25,0 C 50 % 1012,5 hPa 0,0 l/m 2 min 0 min 935 W/m 11,3 km/h (2 Bft) 95,74 %
22.07.2018 14:04 27,7 C 27,2 C 25,0 C 51 % 1012,5 hPa 0,0 l/m 0 min 0 min 290 W/m 15,8 km/h (3 Bft) 100,00 %
22.07.2018 14:06 27,6 C 27,2 C 24,4 C 51 % 1012,6 hPa 0,0 l/m 0 min 0 min 194 W/m 11,3 km/h (2 Bft) 100,00 %
22.07.2018 14:08 27,5 C 26,7 C 24,4 C 51 % 1012,5 hPa 0,0 l/m 0 min 0 min 204 W/m 9,0 km/h (2 Bft) 95,74 %
22.07.2018 14:10 27,4 C 27,2 C 24,4 C 52 % 1012,5 hPa 0,0 l/m 2 min 0 min 814 W/m 6,8 km/h (2 Bft) 97,83 %
22.07.2018 14:12 27,4 C 27,8 C 25,0 C 52 % 1012,5 hPa 0,0 l/m 2 min 0 min 897 W/m 6,8 km/h (2 Bft) 97,87 %
22.07.2018 14:14 27,4 C 27,8 C 25,0 C 52 % 1012,5 hPa 0,0 l/m 2 min 0 min 898 W/m 9,0 km/h (2 Bft) 100,00 %
22.07.2018 14:16 27,4 C 27,8 C 25,0 C 53 % 1012,4 hPa 0,0 l/m 2 min 0 min 834 W/m 11,3 km/h (2 Bft) 100,00 %
22.07.2018 14:18 27,4 C 27,8 C 25,0 C 53 % 1012,5 hPa 0,0 l/m 2 min 0 min 828 W/m 11,3 km/h (2 Bft) 97,87 %
22.07.2018 14:20 27,4 C 27,8 C 25,0 C 54 % 1012,4 hPa 0,0 l/m 2 min 0 min 828 W/m 6,8 km/h (2 Bft) 93,62 %
22.07.2018 14:22 27,4 C 27,8 C 25,0 C 55 % 1012,3 hPa 0,0 l/m 2 min 0 min 879 W/m 6,8 km/h (2 Bft) 97,87 %
22.07.2018 14:24 27,4 C 27,8 C 25,0 C 54 % 1012,2 hPa 0,0 l/m 2 min 0 min 878 W/m 6,8 km/h (2 Bft) 97,22 %
22.07.2018 14:26 27,4 C 27,8 C 25,0 C 53 % 1012,2 hPa 0,0 l/m 2 min 0 min 861 W/m 6,8 km/h (2 Bft) 97,83 %
22.07.2018 14:28 27,4 C 27,8 C 25,6 C 52 % 1012,2 hPa 0,0 l/m 2 min 0 min 801 W/m 9,0 km/h (2 Bft) 95,74 %
22.07.2018 14:30 27,4 C 27,8 C 25,6 C 53 % 1012,2 hPa 0,0 l/m 2 min 0 min 448 W/m 6,8 km/h (2 Bft) 95,74 %
22.07.2018 14:32 27,4 C 28,3 C 25,6 C 52 % 1012,2 hPa 0,0 l/m 2 min 0 min 930 W/m 18,0 km/h (3 Bft) 91,67 %
22.07.2018 14:34 27,4 C 27,8 C 25,6 C 52 % 1012,2 hPa 0,0 l/m 2 min 0 min 579 W/m 11,3 km/h (2 Bft) 95,74 %
22.07.2018 14:36 27,4 C 27,2 C 25,0 C 52 % 1012,2 hPa 0,0 l/m 0 min 0 min 267 W/m 9,0 km/h (2 Bft) 95,65 %
22.07.2018 14:38 27,4 C 27,8 C 25,0 C 53 % 1012,2 hPa 0,0 l/m 0 min 0 min 285 W/m 2,3 km/h (1 Bft) 95,74 %
22.07.2018 14:40 27,4 C 27,2 C 25,0 C 53 % 1012,1 hPa 0,0 l/m 0 min 0 min 318 W/m 6,8 km/h (2 Bft) 95,74 %
22.07.2018 14:42 27,4 C 27,2 C 25,0 C 52 % 1012,1 hPa 0,0 l/m 2 min 0 min 465 W/m 6,8 km/h (2 Bft) 93,62 %
22.07.2018 14:44 27,4 C 27,8 C 24,4 C 54 % 1012,1 hPa 0,0 l/m 2 min 0 min 963 W/m 4,5 km/h (1 Bft) 93,62 %
22.07.2018 14:46 27,4 C 27,8 C 25,0 C 53 % 1012,1 hPa 0,0 l/m 0 min 0 min 360 W/m 6,8 km/h (2 Bft) 95,74 %
22.07.2018 14:48 27,4 C 28,3 C 25,6 C 53 % 1012,1 hPa 0,0 l/m 2 min 0 min 768 W/m 9,0 km/h (2 Bft) 95,65 %
22.07.2018 14:50 27,4 C 28,9 C 25,6 C 54 % 1012,1 hPa 0,0 l/m 2 min 0 min 911 W/m 4,5 km/h (1 Bft) 93,62 %
22.07.2018 14:52 27,5 C 28,9 C 25,6 C 54 % 1012,1 hPa 0,0 l/m 2 min 0 min 895 W/m 6,8 km/h (2 Bft) 95,74 %
22.07.2018 14:54 27,6 C 28,9 C 25,6 C 53 % 1012,0 hPa 0,0 l/m 2 min 0 min 890 W/m 9,0 km/h (2 Bft) 95,74 %
22.07.2018 14:56 27,6 C 28,9 C 25,6 C 54 % 1011,9 hPa 0,0 l/m 2 min 0 min 865 W/m 6,8 km/h (2 Bft) 95,74 %
22.07.2018 14:58 27,7 C 28,9 C 26,1 C 54 % 1012,1 hPa 0,0 l/m 2 min 0 min 865 W/m 13,5 km/h (3 Bft) 93,62 %
22.07.2018 15:00 27,7 C 28,9 C 26,1 C 53 % 1012,1 hPa 0,0 l/m 2 min 0 min 850 W/m 18,0 km/h (3 Bft) 95,65 %
22.07.2018 15:02 27,8 C 28,3 C 25,6 C 54 % 1012,1 hPa 0,0 l/m 2 min 0 min 839 W/m 9,0 km/h (2 Bft) 95,74 %
22.07.2018 15:04 27,8 C 27,8 C 25,6 C 52 % 1012,0 hPa 0,0 l/m 0 min 0 min 179 W/m 6,8 km/h (2 Bft) 97,87 %
22.07.2018 15:06 27,8 C 27,2 C 25,0 C 53 % 1012,1 hPa 0,0 l/m 0 min 0 min 149 W/m 11,3 km/h (2 Bft) 97,87 %
22.07.2018 15:08 27,8 C 27,2 C 25,0 C 53 % 1012,1 hPa 0,0 l/m 0 min 0 min 142 W/m 11,3 km/h (2 Bft) 95,74 %
22.07.2018 15:10 27,7 C 26,7 C 24,4 C 52 % 1012,1 hPa 0,0 l/m 0 min 0 min 145 W/m 6,8 km/h (2 Bft) 95,74 %
22.07.2018 15:12 27,7 C 26,7 C 24,4 C 53 % 1012,0 hPa 0,0 l/m 0 min 0 min 167 W/m 9,0 km/h (2 Bft) 97,83 %
22.07.2018 15:14 27,7 C 27,2 C 25,0 C 53 % 1012,0 hPa 0,0 l/m 2 min 0 min 501 W/m 11,3 km/h (2 Bft) 97,87 %
22.07.2018 15:16 27,7 C 27,2 C 25,0 C 54 % 1011,9 hPa 0,0 l/m 2 min 0 min 769 W/m 11,3 km/h (2 Bft) 95,74 %
22.07.2018 15:18 27,7 C 27,2 C 25,0 C 54 % 1012,0 hPa 0,0 l/m 0 min 0 min 224 W/m 9,0 km/h (2 Bft) 97,87 %
22.07.2018 15:20 27,6 C 27,8 C 25,0 C 54 % 1012,0 hPa 0,0 l/m 2 min 0 min 787 W/m 6,8 km/h (2 Bft) 97,87 %
22.07.2018 15:22 27,6 C 27,8 C 25,0 C 55 % 1011,9 hPa 0,0 l/m 2 min 0 min 418 W/m 2,3 km/h (1 Bft) 95,65 %
22.07.2018 15:24 27,6 C 27,8 C 25,0 C 54 % 1012,0 hPa 0,0 l/m 0 min 0 min 187 W/m 9,0 km/h (2 Bft) 97,87 %
22.07.2018 15:26 27,6 C 27,2 C 25,0 C 53 % 1012,0 hPa 0,0 l/m 0 min 0 min 163 W/m 6,8 km/h (2 Bft) 97,87 %
22.07.2018 15:28 27,5 C 27,2 C 25,0 C 55 % 1011,8 hPa 0,0 l/m 0 min 0 min 224 W/m 6,8 km/h (2 Bft) 95,74 %
22.07.2018 15:30 27,5 C 27,8 C 25,0 C 54 % 1011,9 hPa 0,0 l/m 0 min 0 min 234 W/m 4,5 km/h (1 Bft) 95,74 %
22.07.2018 15:32 27,5 C 28,3 C 25,6 C 55 % 1011,9 hPa 0,0 l/m 2 min 0 min 832 W/m 11,3 km/h (2 Bft) 100,00 %
22.07.2018 15:34 27,5 C 28,9 C 25,6 C 55 % 1011,8 hPa 0,0 l/m 2 min 0 min 836 W/m 9,0 km/h (2 Bft) 100,00 %
22.07.2018 15:36 27,5 C 28,9 C 25,6 C 54 % 1011,9 hPa 0,0 l/m 2 min 0 min 857 W/m 6,8 km/h (2 Bft) 100,00 %
22.07.2018 15:38 27,6 C 29,4 C 26,1 C 53 % 1011,8 hPa 0,0 l/m 2 min 0 min 866 W/m 11,3 km/h (2 Bft) 100,00 %
22.07.2018 15:40 27,7 C 29,4 C 26,1 C 53 % 1011,8 hPa 0,0 l/m 2 min 0 min 885 W/m 13,5 km/h (3 Bft) 100,00 %
22.07.2018 15:42 27,8 C 29,4 C 26,1 C 53 % 1011,8 hPa 0,0 l/m 2 min 0 min 890 W/m 11,3 km/h (2 Bft) 100,00 %
22.07.2018 15:44 27,8 C 30,0 C 26,1 C 54 % 1011,9 hPa 0,0 l/m 2 min 0 min 895 W/m 11,3 km/h (2 Bft) 97,83 %
22.07.2018 15:46 27,9 C 30,0 C 26,7 C 52 % 1011,9 hPa 0,0 l/m 2 min 0 min 897 W/m 13,5 km/h (3 Bft) 97,87 %
22.07.2018 15:48 28,1 C 30,6 C 26,7 C 53 % 1011,9 hPa 0,0 l/m 2 min 0 min 887 W/m 15,8 km/h (3 Bft) 97,87 %
22.07.2018 15:50 28,2 C 30,0 C 26,7 C 52 % 1011,9 hPa 0,0 l/m 2 min 0 min 879 W/m 11,3 km/h (2 Bft) 97,87 %
22.07.2018 15:52 28,3 C 30,6 C 26,7 C 52 % 1011,9 hPa 0,0 l/m 2 min 0 min 872 W/m 6,8 km/h (2 Bft) 95,74 %
22.07.2018 15:54 28,4 C 31,1 C 26,7 C 52 % 1011,8 hPa 0,0 l/m 2 min 0 min 876 W/m 11,3 km/h (2 Bft) 97,87 %
22.07.2018 15:56 28,4 C 30,0 C 26,7 C 51 % 1011,8 hPa 0,0 l/m 2 min 0 min 570 W/m 9,0 km/h (2 Bft) 95,65 %
22.07.2018 15:58 28,5 C 29,4 C 26,7 C 52 % 1012,0 hPa 0,0 l/m 0 min 0 min 270 W/m 4,5 km/h (1 Bft) 97,87 %
22.07.2018 16:00 28,5 C 28,9 C 26,1 C 51 % 1012,0 hPa 0,0 l/m 0 min 0 min 255 W/m 6,8 km/h (2 Bft) 97,87 %
22.07.2018 16:02 28,4 C 28,3 C 26,1 C 51 % 1012,0 hPa 0,0 l/m 0 min 0 min 262 W/m 13,5 km/h (3 Bft) 97,96 %
22.07.2018 16:04 28,4 C 28,3 C 25,6 C 52 % 1012,1 hPa 0,0 l/m 0 min 0 min 268 W/m 13,5 km/h (3 Bft) 97,87 %
22.07.2018 16:06 28,3 C 27,8 C 25,6 C 52 % 1012,0 hPa 0,0 l/m 0 min 0 min 282 W/m 9,0 km/h (2 Bft) 97,87 %
22.07.2018 16:08 28,3 C 27,8 C 25,6 C 52 % 1012,0 hPa 0,0 l/m 0 min 0 min 279 W/m 6,8 km/h (2 Bft) 97,83 %
22.07.2018 16:10 28,3 C 27,8 C 25,6 C 52 % 1011,9 hPa 0,0 l/m 0 min 0 min 284 W/m 6,8 km/h (2 Bft) 93,62 %
22.07.2018 16:12 28,2 C 27,8 C 25,6 C 52 % 1012,1 hPa 0,0 l/m 0 min 0 min 309 W/m 13,5 km/h (3 Bft) 97,87 %
22.07.2018 16:14 28,2 C 27,8 C 25,6 C 53 % 1012,1 hPa 0,0 l/m 0 min 0 min 304 W/m 4,5 km/h (1 Bft) 97,87 %
22.07.2018 16:16 28,2 C 27,8 C 25,6 C 52 % 1012,1 hPa 0,0 l/m 0 min 0 min 322 W/m 11,3 km/h (2 Bft) 97,87 %
22.07.2018 16:18 28,1 C 27,8 C 25,6 C 52 % 1012,1 hPa 0,0 l/m 0 min 0 min 343 W/m 9,0 km/h (2 Bft) 97,87 %
22.07.2018 16:20 28,1 C 27,8 C 25,6 C 52 % 1012,1 hPa 0,0 l/m 0 min 0 min 337 W/m 11,3 km/h (2 Bft) 97,83 %
22.07.2018 16:22 28,0 C 27,8 C 25,6 C 52 % 1012,1 hPa 0,0 l/m 0 min 0 min 336 W/m 11,3 km/h (2 Bft) 95,74 %
22.07.2018 16:24 28,0 C 27,8 C 25,6 C 51 % 1012,2 hPa 0,0 l/m 0 min 0 min 340 W/m 15,8 km/h (3 Bft) 97,87 %
22.07.2018 16:26 27,9 C 27,8 C 25,6 C 51 % 1012,2 hPa 0,0 l/m 2 min 0 min 358 W/m 6,8 km/h (2 Bft) 97,87 %
22.07.2018 16:28 27,9 C 28,3 C 25,6 C 52 % 1012,2 hPa 0,0 l/m 2 min 0 min 362 W/m 11,3 km/h (2 Bft) 97,87 %
22.07.2018 16:30 27,9 C 28,3 C 25,6 C 51 % 1012,1 hPa 0,0 l/m 2 min 0 min 379 W/m 13,5 km/h (3 Bft) 97,87 %
22.07.2018 16:32 27,8 C 28,3 C 25,6 C 52 % 1012,2 hPa 0,0 l/m 2 min 0 min 394 W/m 11,3 km/h (2 Bft) 97,92 %
22.07.2018 16:34 27,8 C 28,3 C 25,6 C 52 % 1012,1 hPa 0,0 l/m 2 min 0 min 384 W/m 11,3 km/h (2 Bft) 97,87 %
22.07.2018 16:36 27,8 C 28,3 C 25,6 C 52 % 1012,1 hPa 0,0 l/m 2 min 0 min 371 W/m 13,5 km/h (3 Bft) 97,30 %
22.07.2018 16:38 27,8 C 28,3 C 25,6 C 52 % 1012,1 hPa 0,0 l/m 2 min 0 min 345 W/m 11,3 km/h (2 Bft) 97,87 %
22.07.2018 16:40 27,7 C 28,3 C 25,6 C 53 % 1012,0 hPa 0,0 l/m 0 min 0 min 327 W/m 4,5 km/h (1 Bft) 97,87 %
22.07.2018 16:42 27,7 C 27,8 C 25,6 C 53 % 1012,1 hPa 0,0 l/m 2 min 0 min 335 W/m 11,3 km/h (2 Bft) 97,87 %
22.07.2018 16:44 27,7 C 27,8 C 25,6 C 53 % 1012,1 hPa 0,0 l/m 2 min 0 min 346 W/m 6,8 km/h (2 Bft) 97,87 %
22.07.2018 16:46 27,7 C 27,8 C 25,6 C 53 % 1012,1 hPa 0,0 l/m 2 min 0 min 341 W/m 9,0 km/h (2 Bft) 97,83 %
22.07.2018 16:48 27,7 C 27,8 C 25,6 C 53 % 1012,1 hPa 0,0 l/m 2 min 0 min 349 W/m 9,0 km/h (2 Bft) 100,00 %
22.07.2018 16:50 27,7 C 27,8 C 25,6 C 54 % 1012,1 hPa 0,0 l/m 2 min 0 min 342 W/m 20,3 km/h (4 Bft) 100,00 %
22.07.2018 16:52 27,7 C 27,8 C 25,6 C 54 % 1012,1 hPa 0,0 l/m 2 min 0 min 336 W/m 9,0 km/h (2 Bft) 100,00 %
22.07.2018 16:54 27,7 C 27,8 C 25,6 C 55 % 1012,0 hPa 0,0 l/m 2 min 0 min 359 W/m 15,8 km/h (3 Bft) 95,74 %
22.07.2018 16:56 27,7 C 28,3 C 25,6 C 55 % 1012,0 hPa 0,0 l/m 2 min 0 min 424 W/m 18,0 km/h (3 Bft) 95,65 %
22.07.2018 16:58 27,6 C 28,3 C 25,6 C 55 % 1012,1 hPa 0,0 l/m 2 min 0 min 431 W/m 15,8 km/h (3 Bft) 97,87 %
22.07.2018 17:00 27,6 C 28,3 C 25,6 C 55 % 1012,0 hPa 0,0 l/m 2 min 0 min 422 W/m 15,8 km/h (3 Bft) 97,87 %
22.07.2018 17:02 27,6 C 28,3 C 25,6 C 55 % 1012,1 hPa 0,0 l/m 2 min 0 min 372 W/m 13,5 km/h (3 Bft) 97,87 %
22.07.2018 17:04 27,6 C 28,3 C 25,6 C 54 % 1012,2 hPa 0,0 l/m 2 min 0 min 368 W/m 11,3 km/h (2 Bft) 95,74 %
22.07.2018 17:06 27,6 C 28,3 C 25,6 C 54 % 1012,2 hPa 0,0 l/m 2 min 0 min 442 W/m 15,8 km/h (3 Bft) 97,87 %
22.07.2018 17:08 27,6 C 29,4 C 26,1 C 54 % 1012,2 hPa 0,0 l/m 2 min 0 min 665 W/m 11,3 km/h (2 Bft) 97,83 %
22.07.2018 17:10 27,6 C 29,4 C 26,1 C 55 % 1012,1 hPa 0,0 l/m 2 min 0 min 655 W/m 6,8 km/h (2 Bft) 95,74 %
22.07.2018 17:12 27,7 C 28,9 C 26,1 C 55 % 1012,1 hPa 0,0 l/m 2 min 0 min 421 W/m 18,0 km/h (3 Bft) 97,87 %
22.07.2018 17:14 27,7 C 28,3 C 25,6 C 54 % 1012,1 hPa 0,0 l/m 2 min 0 min 307 W/m 13,5 km/h (3 Bft) 97,87 %
22.07.2018 17:16 27,7 C 27,8 C 25,6 C 55 % 1012,2 hPa 0,0 l/m 2 min 0 min 314 W/m 13,5 km/h (3 Bft) 97,87 %
22.07.2018 17:18 27,7 C 27,8 C 25,6 C 54 % 1012,1 hPa 0,0 l/m 2 min 0 min 296 W/m 9,0 km/h (2 Bft) 97,87 %
22.07.2018 17:20 27,7 C 27,8 C 25,6 C 54 % 1012,2 hPa 0,0 l/m 0 min 0 min 284 W/m 13,5 km/h (3 Bft) 95,65 %
22.07.2018 17:22 27,6 C 27,8 C 25,6 C 54 % 1012,1 hPa 0,0 l/m 0 min 0 min 271 W/m 11,3 km/h (2 Bft) 95,74 %
22.07.2018 17:24 27,6 C 27,2 C 25,6 C 55 % 1012,1 hPa 0,0 l/m 0 min 0 min 259 W/m 11,3 km/h (2 Bft) 97,87 %
22.07.2018 17:26 27,6 C 27,2 C 25,6 C 55 % 1012,2 hPa 0,0 l/m 0 min 0 min 247 W/m 11,3 km/h (2 Bft) 93,62 %
22.07.2018 17:28 27,5 C 27,2 C 25,6 C 55 % 1012,2 hPa 0,0 l/m 0 min 0 min 240 W/m 15,8 km/h (3 Bft) 95,74 %
22.07.2018 17:30 27,4 C 27,2 C 25,0 C 55 % 1012,2 hPa 0,0 l/m 0 min 0 min 237 W/m 13,5 km/h (3 Bft) 97,87 %
22.07.2018 17:32 27,4 C 27,2 C 25,0 C 54 % 1012,2 hPa 0,0 l/m 0 min 0 min 237 W/m 15,8 km/h (3 Bft) 97,83 %
22.07.2018 17:34 27,4 C 27,2 C 25,0 C 55 % 1012,2 hPa 0,0 l/m 0 min 0 min 236 W/m 13,5 km/h (3 Bft) 95,74 %
22.07.2018 17:36 27,3 C 27,2 C 25,0 C 54 % 1012,2 hPa 0,0 l/m 0 min 0 min 232 W/m 6,8 km/h (2 Bft) 97,87 %
22.07.2018 17:38 27,3 C 26,7 C 25,0 C 54 % 1012,2 hPa 0,0 l/m 0 min 0 min 228 W/m 4,5 km/h (1 Bft) 95,74 %
22.07.2018 17:40 27,2 C 27,2 C 25,0 C 55 % 1012,2 hPa 0,0 l/m 0 min 0 min 229 W/m 6,8 km/h (2 Bft) 97,87 %
22.07.2018 17:42 27,2 C 26,7 C 25,0 C 55 % 1012,1 hPa 0,0 l/m 0 min 0 min 247 W/m 6,8 km/h (2 Bft) 97,87 %
22.07.2018 17:44 27,2 C 26,7 C 25,0 C 54 % 1012,2 hPa 0,0 l/m 0 min 0 min 242 W/m 13,5 km/h (3 Bft) 97,83 %
22.07.2018 17:46 27,1 C 26,7 C 25,0 C 54 % 1012,2 hPa 0,0 l/m 0 min 0 min 240 W/m 9,0 km/h (2 Bft) 97,87 %
22.07.2018 17:48 27,1 C 27,2 C 25,0 C 55 % 1012,2 hPa 0,0 l/m 0 min 0 min 244 W/m 6,8 km/h (2 Bft) 97,87 %
22.07.2018 17:50 27,1 C 27,2 C 25,0 C 55 % 1012,2 hPa 0,0 l/m 0 min 0 min 242 W/m 6,8 km/h (2 Bft) 100,00 %
22.07.2018 17:52 27,1 C 27,2 C 25,0 C 56 % 1012,1 hPa 0,0 l/m 0 min 0 min 241 W/m 4,5 km/h (1 Bft) 98,11 %
22.07.2018 17:54 27,1 C 27,2 C 25,6 C 55 % 1012,1 hPa 0,0 l/m 0 min 0 min 238 W/m 4,5 km/h (1 Bft) 97,83 %
22.07.2018 17:56 27,1 C 27,2 C 25,0 C 55 % 1012,1 hPa 0,0 l/m 0 min 0 min 227 W/m 9,0 km/h (2 Bft) 97,87 %
22.07.2018 17:58 27,1 C 27,2 C 25,0 C 56 % 1012,1 hPa 0,0 l/m 0 min 0 min 220 W/m 6,8 km/h (2 Bft) 97,87 %
22.07.2018 18:00 27,0 C 27,2 C 25,0 C 55 % 1012,1 hPa 0,0 l/m 0 min 0 min 218 W/m 9,0 km/h (2 Bft) 97,87 %
22.07.2018 18:02 27,0 C 27,2 C 25,0 C 54 % 1012,2 hPa 0,0 l/m 0 min 0 min 215 W/m 6,8 km/h (2 Bft) 97,87 %
22.07.2018 18:04 27,0 C 26,7 C 25,0 C 55 % 1012,1 hPa 0,0 l/m 0 min 0 min 217 W/m 6,8 km/h (2 Bft) 97,87 %
22.07.2018 18:08 27,0 C 26,7 C 25,0 C 55 % 1012,1 hPa 0,0 l/m 0 min 0 min 228 W/m 9,0 km/h (2 Bft) 96,81 %
22.07.2018 18:10 27,0 C 27,2 C 25,0 C 55 % 1012,0 hPa 0,0 l/m 2 min 0 min 276 W/m 6,8 km/h (2 Bft) 97,87 %
22.07.2018 18:12 27,0 C 27,2 C 25,0 C 55 % 1012,0 hPa 0,0 l/m 2 min 0 min 297 W/m 6,8 km/h (2 Bft) 93,62 %
22.07.2018 18:14 27,0 C 27,2 C 25,6 C 55 % 1012,0 hPa 0,0 l/m 2 min 0 min 270 W/m 4,5 km/h (1 Bft) 97,87 %
22.07.2018 18:16 27,0 C 27,2 C 25,6 C 56 % 1012,0 hPa 0,0 l/m 2 min 0 min 259 W/m 6,8 km/h (2 Bft) 97,83 %
22.07.2018 18:18 27,0 C 27,2 C 25,6 C 56 % 1012,1 hPa 0,0 l/m 2 min 0 min 257 W/m 4,5 km/h (1 Bft) 97,87 %
22.07.2018 18:20 27,0 C 27,2 C 25,6 C 55 % 1011,9 hPa 0,0 l/m 2 min 0 min 253 W/m 9,0 km/h (2 Bft) 95,74 %
22.07.2018 18:22 27,1 C 27,8 C 25,6 C 56 % 1012,0 hPa 0,0 l/m 2 min 0 min 247 W/m 6,8 km/h (2 Bft) 97,87 %
22.07.2018 18:24 27,1 C 27,2 C 25,6 C 55 % 1012,0 hPa 0,0 l/m 2 min 0 min 246 W/m 6,8 km/h (2 Bft) 97,87 %
22.07.2018 18:26 27,1 C 27,2 C 25,6 C 55 % 1012,0 hPa 0,0 l/m 2 min 0 min 246 W/m 6,8 km/h (2 Bft) 97,87 %
22.07.2018 18:28 27,1 C 27,2 C 25,6 C 55 % 1011,9 hPa 0,0 l/m 2 min 0 min 245 W/m 2,3 km/h (1 Bft) 97,83 %
22.07.2018 18:30 27,1 C 27,2 C 25,6 C 56 % 1011,9 hPa 0,0 l/m 2 min 0 min 244 W/m 4,5 km/h (1 Bft) 97,87 %
22.07.2018 18:32 27,1 C 27,2 C 25,6 C 55 % 1011,9 hPa 0,0 l/m 2 min 0 min 248 W/m 11,3 km/h (2 Bft) 97,87 %
22.07.2018 18:34 27,1 C 27,2 C 25,6 C 54 % 1011,9 hPa 0,0 l/m 2 min 0 min 268 W/m 4,5 km/h (1 Bft) 97,87 %
22.07.2018 18:36 27,2 C 27,8 C 25,6 C 54 % 1011,8 hPa 0,0 l/m 2 min 0 min 294 W/m 9,0 km/h (2 Bft) 97,92 %
22.07.2018 18:38 27,2 C 27,8 C 25,6 C 54 % 1011,9 hPa 0,0 l/m 2 min 0 min 308 W/m 11,3 km/h (2 Bft) 95,74 %
22.07.2018 18:40 27,2 C 27,8 C 25,6 C 54 % 1011,8 hPa 0,0 l/m 2 min 0 min 326 W/m 6,8 km/h (2 Bft) 97,83 %
22.07.2018 18:42 27,2 C 27,8 C 25,6 C 54 % 1011,8 hPa 0,0 l/m 2 min 0 min 303 W/m 11,3 km/h (2 Bft) 95,74 %
22.07.2018 18:44 27,3 C 27,8 C 25,6 C 54 % 1011,8 hPa 0,0 l/m 2 min 0 min 346 W/m 9,0 km/h (2 Bft) 97,87 %
22.07.2018 18:46 27,3 C 27,8 C 25,6 C 54 % 1011,7 hPa 0,0 l/m 2 min 0 min 363 W/m 6,8 km/h (2 Bft) 97,87 %
22.07.2018 18:48 27,3 C 27,8 C 25,6 C 53 % 1011,7 hPa 0,0 l/m 2 min 0 min 388 W/m 11,3 km/h (2 Bft) 100,00 %
22.07.2018 18:50 27,4 C 27,8 C 26,1 C 54 % 1011,8 hPa 0,0 l/m 2 min 0 min 423 W/m 6,8 km/h (2 Bft) 97,87 %
22.07.2018 18:52 27,4 C 28,3 C 26,1 C 55 % 1011,7 hPa 0,0 l/m 2 min 0 min 445 W/m 4,5 km/h (1 Bft) 100,00 %
22.07.2018 18:54 27,5 C 28,3 C 26,1 C 55 % 1011,8 hPa 0,0 l/m 2 min 0 min 426 W/m 6,8 km/h (2 Bft) 100,00 %
22.07.2018 18:56 27,6 C 28,3 C 26,1 C 54 % 1011,8 hPa 0,0 l/m 2 min 0 min 342 W/m 15,8 km/h (3 Bft) 100,00 %
22.07.2018 18:58 27,6 C 28,3 C 26,1 C 54 % 1011,8 hPa 0,0 l/m 2 min 0 min 382 W/m 11,3 km/h (2 Bft) 100,00 %
22.07.2018 19:00 27,6 C 28,3 C 26,1 C 53 % 1011,8 hPa 0,0 l/m 2 min 0 min 395 W/m 6,8 km/h (2 Bft) 100,00 %
22.07.2018 19:02 27,7 C 27,8 C 26,1 C 53 % 1011,8 hPa 0,0 l/m 2 min 0 min 244 W/m 6,8 km/h (2 Bft) 100,00 %
22.07.2018 19:04 27,7 C 27,8 C 25,6 C 54 % 1011,8 hPa 0,0 l/m 2 min 0 min 338 W/m 4,5 km/h (1 Bft) 100,00 %
22.07.2018 19:06 27,7 C 27,8 C 25,6 C 54 % 1011,8 hPa 0,0 l/m 2 min 0 min 269 W/m 9,0 km/h (2 Bft) 97,22 %
22.07.2018 19:08 27,7 C 27,8 C 25,6 C 55 % 1011,9 hPa 0,0 l/m 2 min 0 min 232 W/m 4,5 km/h (1 Bft) 97,87 %
22.07.2018 19:10 27,7 C 27,8 C 25,6 C 54 % 1012,0 hPa 0,0 l/m 2 min 0 min 216 W/m 4,5 km/h (1 Bft) 97,87 %
22.07.2018 19:12 27,7 C 27,8 C 25,6 C 54 % 1012,0 hPa 0,0 l/m 2 min 0 min 218 W/m 11,3 km/h (2 Bft) 97,87 %
22.07.2018 19:14 27,7 C 27,8 C 25,6 C 55 % 1011,9 hPa 0,0 l/m 2 min 0 min 201 W/m 9,0 km/h (2 Bft) 97,87 %
22.07.2018 19:16 27,7 C 27,8 C 25,6 C 54 % 1011,9 hPa 0,0 l/m 2 min 0 min 185 W/m 6,8 km/h (2 Bft) 97,87 %
22.07.2018 19:18 27,7 C 27,8 C 25,6 C 54 % 1011,9 hPa 0,0 l/m 2 min 0 min 191 W/m 6,8 km/h (2 Bft) 97,83 %
22.07.2018 19:20 27,7 C 27,8 C 25,6 C 54 % 1012,0 hPa 0,0 l/m 2 min 0 min 229 W/m 13,5 km/h (3 Bft) 97,87 %
22.07.2018 19:22 27,6 C 27,2 C 25,6 C 54 % 1011,9 hPa 0,0 l/m 2 min 0 min 185 W/m 11,3 km/h (2 Bft) 96,61 %
22.07.2018 19:24 27,6 C 27,2 C 25,6 C 54 % 1012,0 hPa 0,0 l/m 2 min 0 min 160 W/m 11,3 km/h (2 Bft) 97,14 %
22.07.2018 19:26 27,6 C 27,2 C 25,6 C 54 % 1012,0 hPa 0,0 l/m 2 min 0 min 154 W/m 6,8 km/h (2 Bft) 97,87 %
22.07.2018 19:28 27,6 C 27,2 C 25,0 C 54 % 1012,1 hPa 0,0 l/m 2 min 0 min 148 W/m 11,3 km/h (2 Bft) 94,44 %
22.07.2018 19:30 27,5 C 27,2 C 25,0 C 54 % 1012,1 hPa 0,0 l/m 2 min 0 min 146 W/m 11,3 km/h (2 Bft) 94,83 %
22.07.2018 19:32 27,5 C 27,2 C 24,4 C 54 % 1012,0 hPa 0,0 l/m 2 min 0 min 146 W/m 9,0 km/h (2 Bft) 95,83 %
22.07.2018 19:34 27,4 C 26,7 C 24,4 C 54 % 1012,0 hPa 0,0 l/m 2 min 0 min 143 W/m 9,0 km/h (2 Bft) 95,74 %
22.07.2018 19:36 27,4 C 26,7 C 24,4 C 54 % 1011,9 hPa 0,0 l/m 2 min 0 min 141 W/m 9,0 km/h (2 Bft) 96,23 %
22.07.2018 19:38 27,4 C 26,7 C 24,4 C 55 % 1012,0 hPa 0,0 l/m 2 min 0 min 141 W/m 9,0 km/h (2 Bft) 95,65 %
22.07.2018 19:40 27,3 C 26,7 C 24,4 C 54 % 1012,0 hPa 0,0 l/m 2 min 0 min 137 W/m 11,3 km/h (2 Bft) 93,62 %
22.07.2018 19:42 27,3 C 26,1 C 24,4 C 55 % 1012,0 hPa 0,0 l/m 2 min 0 min 143 W/m 9,0 km/h (2 Bft) 93,62 %
22.07.2018 19:44 27,2 C 26,1 C 24,4 C 55 % 1012,0 hPa 0,0 l/m 2 min 0 min 132 W/m 6,8 km/h (2 Bft) 95,74 %
22.07.2018 19:46 27,2 C 26,1 C 24,4 C 55 % 1012,0 hPa 0,0 l/m 2 min 0 min 125 W/m 4,5 km/h (1 Bft) 95,74 %
22.07.2018 19:48 27,2 C 26,1 C 24,4 C 55 % 1012,0 hPa 0,0 l/m 2 min 0 min 125 W/m 2,3 km/h (1 Bft) 93,62 %
22.07.2018 19:50 27,1 C 26,1 C 24,4 C 55 % 1012,1 hPa 0,0 l/m 2 min 0 min 125 W/m 15,8 km/h (3 Bft) 95,65 %
22.07.2018 19:52 27,1 C 26,1 C 24,4 C 54 % 1012,0 hPa 0,0 l/m 2 min 0 min 118 W/m 13,5 km/h (3 Bft) 95,83 %
22.07.2018 19:54 27,0 C 26,1 C 24,4 C 55 % 1012,0 hPa 0,0 l/m 2 min 0 min 114 W/m 4,5 km/h (1 Bft) 95,74 %
22.07.2018 19:56 27,0 C 26,1 C 24,4 C 55 % 1012,0 hPa 0,0 l/m 0 min 0 min 109 W/m 9,0 km/h (2 Bft) 95,74 %
22.07.2018 19:58 26,9 C 26,1 C 24,4 C 55 % 1012,1 hPa 0,0 l/m 0 min 0 min 105 W/m 6,8 km/h (2 Bft) 95,74 %
22.07.2018 20:00 26,9 C 26,1 C 24,4 C 55 % 1012,1 hPa 0,0 l/m 0 min 0 min 102 W/m 6,8 km/h (2 Bft) 95,74 %
22.07.2018 20:02 26,8 C 26,1 C 24,4 C 55 % 1012,1 hPa 0,0 l/m 0 min 0 min 97 W/m 6,8 km/h (2 Bft) 97,83 %
22.07.2018 20:04 26,8 C 25,6 C 24,4 C 55 % 1012,1 hPa 0,0 l/m 0 min 0 min 93 W/m 4,5 km/h (1 Bft) 97,87 %
22.07.2018 20:06 26,8 C 25,6 C 24,4 C 55 % 1012,1 hPa 0,0 l/m 0 min 0 min 88 W/m 9,0 km/h (2 Bft) 97,87 %
22.07.2018 20:08 26,7 C 25,6 C 23,9 C 55 % 1012,1 hPa 0,0 l/m 0 min 0 min 85 W/m 9,0 km/h (2 Bft) 95,74 %
22.07.2018 20:10 26,7 C 25,6 C 23,9 C 54 % 1012,1 hPa 0,0 l/m 0 min 0 min 79 W/m 9,0 km/h (2 Bft) 100,00 %
22.07.2018 20:12 26,6 C 25,6 C 23,9 C 55 % 1012,0 hPa 0,0 l/m 0 min 0 min 74 W/m 9,0 km/h (2 Bft) 97,87 %
22.07.2018 20:14 26,6 C 25,6 C 23,9 C 55 % 1012,1 hPa 0,0 l/m 0 min 0 min 72 W/m 4,5 km/h (1 Bft) 100,00 %
22.07.2018 20:16 26,5 C 25,6 C 23,9 C 55 % 1012,1 hPa 0,0 l/m 0 min 0 min 74 W/m 6,8 km/h (2 Bft) 100,00 %
22.07.2018 20:18 26,5 C 25,0 C 23,9 C 56 % 1012,0 hPa 0,0 l/m 0 min 0 min 73 W/m 4,5 km/h (1 Bft) 97,87 %
22.07.2018 20:20 26,4 C 25,0 C 23,9 C 55 % 1012,1 hPa 0,0 l/m 0 min 0 min 69 W/m 4,5 km/h (1 Bft) 97,87 %
22.07.2018 20:22 26,4 C 25,0 C 23,9 C 56 % 1012,1 hPa 0,0 l/m 0 min 0 min 67 W/m 9,0 km/h (2 Bft) 100,00 %
22.07.2018 20:24 26,3 C 25,0 C 23,9 C 56 % 1012,2 hPa 0,0 l/m 0 min 0 min 64 W/m 6,8 km/h (2 Bft) 100,00 %
22.07.2018 20:26 26,3 C 25,0 C 23,9 C 56 % 1012,2 hPa 0,0 l/m 0 min 0 min 61 W/m 6,8 km/h (2 Bft) 100,00 %
22.07.2018 20:28 26,2 C 25,0 C 23,9 C 55 % 1012,3 hPa 0,0 l/m 0 min 0 min 56 W/m 9,0 km/h (2 Bft) 100,00 %
22.07.2018 20:30 26,2 C 25,0 C 23,9 C 55 % 1012,2 hPa 0,0 l/m 0 min 0 min 54 W/m 9,0 km/h (2 Bft) 100,00 %
22.07.2018 20:32 26,1 C 25,0 C 23,9 C 55 % 1012,3 hPa 0,0 l/m 0 min 0 min 50 W/m 9,0 km/h (2 Bft) 100,00 %
22.07.2018 20:34 26,1 C 25,0 C 23,9 C 55 % 1012,3 hPa 0,0 l/m 0 min 0 min 47 W/m 9,0 km/h (2 Bft) 100,00 %
22.07.2018 20:36 26,1 C 25,0 C 23,9 C 55 % 1012,3 hPa 0,0 l/m 0 min 0 min 44 W/m 11,3 km/h (2 Bft) 100,00 %
22.07.2018 20:38 26,0 C 25,0 C 23,9 C 56 % 1012,4 hPa 0,0 l/m 0 min 0 min 42 W/m 11,3 km/h (2 Bft) 100,00 %
22.07.2018 20:40 26,0 C 25,0 C 23,9 C 55 % 1012,4 hPa 0,0 l/m 0 min 0 min 41 W/m 13,5 km/h (3 Bft) 100,00 %
22.07.2018 20:42 25,9 C 25,0 C 23,9 C 55 % 1012,3 hPa 0,0 l/m 0 min 0 min 40 W/m 11,3 km/h (2 Bft) 100,00 %
22.07.2018 20:44 25,9 C 25,0 C 23,9 C 56 % 1012,4 hPa 0,0 l/m 0 min 0 min 39 W/m 9,0 km/h (2 Bft) 100,00 %
22.07.2018 20:46 25,8 C 24,4 C 23,9 C 56 % 1012,4 hPa 0,0 l/m 0 min 0 min 39 W/m 15,8 km/h (3 Bft) 100,00 %
22.07.2018 20:48 25,8 C 24,4 C 23,3 C 56 % 1012,5 hPa 0,0 l/m 0 min 0 min 39 W/m 6,8 km/h (2 Bft) 100,00 %
22.07.2018 20:50 25,7 C 24,4 C 23,3 C 56 % 1012,4 hPa 0,0 l/m 0 min 0 min 39 W/m 4,5 km/h (1 Bft) 100,00 %
22.07.2018 20:52 25,7 C 24,4 C 23,3 C 56 % 1012,5 hPa 0,0 l/m 0 min 0 min 37 W/m 11,3 km/h (2 Bft) 100,00 %
22.07.2018 20:54 25,7 C 24,4 C 23,3 C 56 % 1012,4 hPa 0,0 l/m 0 min 0 min 35 W/m 11,3 km/h (2 Bft) 100,00 %
22.07.2018 20:56 25,6 C 24,4 C 23,3 C 56 % 1012,4 hPa 0,0 l/m 0 min 0 min 34 W/m 13,5 km/h (3 Bft) 100,00 %
22.07.2018 20:58 25,6 C 24,4 C 23,3 C 56 % 1012,4 hPa 0,0 l/m 0 min 0 min 32 W/m 9,0 km/h (2 Bft) 97,87 %
22.07.2018 21:00 25,6 C 23,9 C 23,3 C 57 % 1012,5 hPa 0,0 l/m 0 min 0 min 30 W/m 4,5 km/h (1 Bft) 100,00 %
22.07.2018 21:02 25,5 C 23,9 C 23,3 C 57 % 1012,6 hPa 0,0 l/m 0 min 0 min 28 W/m 11,3 km/h (2 Bft) 100,00 %
22.07.2018 21:04 25,4 C 23,9 C 23,3 C 57 % 1012,6 hPa 0,0 l/m 0 min 0 min 26 W/m 6,8 km/h (2 Bft) 100,00 %
22.07.2018 21:06 25,4 C 23,9 C 23,3 C 57 % 1012,7 hPa 0,0 l/m 0 min 0 min 25 W/m 4,5 km/h (1 Bft) 97,87 %
22.07.2018 21:08 25,3 C 23,9 C 23,3 C 57 % 1012,7 hPa 0,0 l/m 2 min 0 min 25 W/m 9,0 km/h (2 Bft) 100,00 %
22.07.2018 21:10 25,3 C 23,9 C 23,3 C 57 % 1012,6 hPa 0,0 l/m 2 min 0 min 23 W/m 11,3 km/h (2 Bft) 100,00 %
22.07.2018 21:12 25,2 C 23,9 C 22,8 C 57 % 1012,7 hPa 0,0 l/m 2 min 0 min 22 W/m 13,5 km/h (3 Bft) 100,00 %
22.07.2018 21:14 25,2 C 23,9 C 23,3 C 57 % 1012,7 hPa 0,0 l/m 2 min 0 min 21 W/m 9,0 km/h (2 Bft) 97,83 %
22.07.2018 21:16 25,1 C 23,9 C 22,8 C 57 % 1012,8 hPa 0,0 l/m 0 min 0 min 19 W/m 11,3 km/h (2 Bft) 97,87 %
22.07.2018 21:18 25,1 C 23,9 C 22,8 C 57 % 1012,8 hPa 0,0 l/m 0 min 0 min 18 W/m 9,0 km/h (2 Bft) 97,87 %
22.07.2018 21:20 25,1 C 23,3 C 22,8 C 58 % 1012,7 hPa 0,0 l/m 0 min 0 min 18 W/m 11,3 km/h (2 Bft) 97,87 %
22.07.2018 21:22 25,1 C 23,3 C 22,8 C 58 % 1012,7 hPa 0,0 l/m 0 min 0 min 16 W/m 6,8 km/h (2 Bft) 95,74 %
22.07.2018 21:24 25,0 C 23,3 C 22,8 C 58 % 1012,8 hPa 0,0 l/m 0 min 0 min 14 W/m 9,0 km/h (2 Bft) 97,87 %
22.07.2018 21:26 24,9 C 23,3 C 22,8 C 58 % 1012,8 hPa 0,0 l/m 0 min 0 min 14 W/m 6,8 km/h (2 Bft) 95,65 %
22.07.2018 21:28 24,9 C 23,3 C 22,8 C 59 % 1012,8 hPa 0,0 l/m 0 min 0 min 12 W/m 6,8 km/h (2 Bft) 97,87 %
22.07.2018 21:30 24,9 C 23,3 C 22,8 C 58 % 1012,8 hPa 0,0 l/m 0 min 0 min 11 W/m 4,5 km/h (1 Bft) 96,23 %
22.07.2018 21:32 24,8 C 23,3 C 22,8 C 58 % 1012,9 hPa 0,0 l/m 0 min 0 min 11 W/m 2,3 km/h (1 Bft) 95,24 %
22.07.2018 21:34 24,8 C 22,8 C 22,2 C 60 % 1012,8 hPa 0,0 l/m 0 min 0 min 9 W/m 4,5 km/h (1 Bft) 97,87 %
22.07.2018 21:36 24,7 C 22,8 C 22,2 C 59 % 1012,8 hPa 0,0 l/m 0 min 0 min 8 W/m 4,5 km/h (1 Bft) 97,83 %
22.07.2018 21:38 24,7 C 22,8 C 22,2 C 59 % 1012,8 hPa 0,0 l/m 0 min 0 min 7 W/m 4,5 km/h (1 Bft) 97,87 %
22.07.2018 21:40 24,6 C 22,8 C 22,2 C 59 % 1013,0 hPa 0,0 l/m 0 min 0 min 5 W/m 2,3 km/h (1 Bft) 97,87 %
22.07.2018 21:42 24,5 C 22,8 C 22,2 C 59 % 1013,0 hPa 0,0 l/m 0 min 0 min 5 W/m 9,0 km/h (2 Bft) 97,87 %
22.07.2018 21:44 24,4 C 22,8 C 22,2 C 59 % 1012,9 hPa 0,0 l/m 0 min 0 min 1 W/m 6,8 km/h (2 Bft) 97,87 %
22.07.2018 21:46 24,4 C 22,8 C 22,2 C 59 % 1013,0 hPa 0,0 l/m 0 min 0 min 0 W/m 6,8 km/h (2 Bft) 97,87 %
22.07.2018 21:48 24,3 C 22,8 C 22,2 C 59 % 1013,1 hPa 0,0 l/m 0 min 0 min 0 W/m 6,8 km/h (2 Bft) 97,83 %
22.07.2018 21:50 24,3 C 22,8 C 22,2 C 59 % 1013,2 hPa 0,0 l/m 0 min 0 min 0 W/m 0,0 km/h (0 Bft) 97,87 %
22.07.2018 21:52 24,3 C 22,2 C 21,7 C 60 % 1013,2 hPa 0,0 l/m 0 min 0 min 0 W/m 0,0 km/h (0 Bft) 97,87 %
22.07.2018 21:54 24,2 C 22,2 C 21,7 C 59 % 1013,2 hPa 0,0 l/m 0 min 0 min 0 W/m 0,0 km/h (0 Bft) 97,87 %
22.07.2018 21:56 24,1 C 22,2 C 21,7 C 60 % 1013,2 hPa 0,0 l/m 0 min 0 min 0 W/m 0,0 km/h (0 Bft) 97,87 %
22.07.2018 21:58 24,1 C 22,2 C 21,7 C 61 % 1013,2 hPa 0,0 l/m 0 min 0 min 0 W/m 0,0 km/h (0 Bft) 97,87 %
22.07.2018 22:00 24,1 C 22,2 C 21,7 C 61 % 1013,3 hPa 0,0 l/m 0 min 0 min 0 W/m 4,5 km/h (1 Bft) 97,83 %
22.07.2018 22:02 24,0 C 22,2 C 21,7 C 60 % 1013,3 hPa 0,0 l/m 0 min 0 min 0 W/m 2,3 km/h (1 Bft) 93,62 %
22.07.2018 22:04 23,9 C 22,2 C 21,7 C 61 % 1013,2 hPa 0,0 l/m 0 min 0 min 0 W/m 2,3 km/h (1 Bft) 93,62 %
22.07.2018 22:06 23,9 C 21,7 C 21,1 C 61 % 1013,2 hPa 0,0 l/m 0 min 0 min 0 W/m 0,0 km/h (0 Bft) 97,87 %
22.07.2018 22:08 23,8 C 21,7 C 21,1 C 62 % 1013,3 hPa 0,0 l/m 0 min 0 min 0 W/m 6,8 km/h (2 Bft) 97,87 %
22.07.2018 22:10 23,8 C 21,7 C 21,1 C 61 % 1013,3 hPa 0,0 l/m 0 min 0 min 0 W/m 4,5 km/h (1 Bft) 97,87 %
22.07.2018 22:12 23,7 C 21,7 C 21,1 C 61 % 1013,3 hPa 0,0 l/m 0 min 0 min 0 W/m 4,5 km/h (1 Bft) 97,83 %
22.07.2018 22:14 23,7 C 21,1 C 21,1 C 61 % 1013,4 hPa 0,0 l/m 0 min 0 min 0 W/m 4,5 km/h (1 Bft) 97,87 %
22.07.2018 22:16 23,6 C 21,1 C 21,1 C 62 % 1013,4 hPa 0,0 l/m 0 min 0 min 0 W/m 0,0 km/h (0 Bft) 97,92 %
22.07.2018 22:18 23,6 C 21,1 C 21,1 C 62 % 1013,3 hPa 0,0 l/m 0 min 0 min 0 W/m 6,8 km/h (2 Bft) 95,74 %
22.07.2018 22:20 23,5 C 21,1 C 21,1 C 62 % 1013,3 hPa 0,0 l/m 0 min 0 min 0 W/m 6,8 km/h (2 Bft) 95,74 %
22.07.2018 22:22 23,4 C 21,1 C 21,1 C 62 % 1013,3 hPa 0,0 l/m 0 min 0 min 0 W/m 6,8 km/h (2 Bft) 97,87 %
22.07.2018 22:24 23,4 C 21,1 C 21,1 C 62 % 1013,4 hPa 0,0 l/m 0 min 0 min 0 W/m 4,5 km/h (1 Bft) 95,65 %
22.07.2018 22:26 23,3 C 21,1 C 21,1 C 62 % 1013,4 hPa 0,0 l/m 0 min 0 min 0 W/m 4,5 km/h (1 Bft) 95,74 %
22.07.2018 22:28 23,3 C 21,1 C 21,1 C 62 % 1013,4 hPa 0,0 l/m 0 min 0 min 0 W/m 4,5 km/h (1 Bft) 95,74 %
22.07.2018 22:30 23,2 C 21,1 C 21,1 C 62 % 1013,5 hPa 0,0 l/m 0 min 0 min 0 W/m 4,5 km/h (1 Bft) 95,74 %
22.07.2018 22:32 23,1 C 21,1 C 21,1 C 63 % 1013,5 hPa 0,0 l/m 0 min 0 min 0 W/m 6,8 km/h (2 Bft) 95,74 %
22.07.2018 22:34 23,1 C 21,1 C 21,1 C 63 % 1013,5 hPa 0,0 l/m 0 min 0 min 0 W/m 4,5 km/h (1 Bft) 93,62 %
22.07.2018 22:36 23,0 C 21,1 C 21,1 C 63 % 1013,5 hPa 0,0 l/m 0 min 0 min 0 W/m 6,8 km/h (2 Bft) 95,65 %
22.07.2018 22:38 22,9 C 21,1 C 21,1 C 63 % 1013,5 hPa 0,0 l/m 0 min 0 min 0 W/m 4,5 km/h (1 Bft) 93,62 %
22.07.2018 22:40 22,9 C 21,1 C 20,6 C 64 % 1013,6 hPa 0,0 l/m 0 min 0 min 0 W/m 4,5 km/h (1 Bft) 95,74 %
22.07.2018 22:42 22,8 C 20,6 C 20,6 C 64 % 1013,6 hPa 0,0 l/m 0 min 0 min 0 W/m 2,3 km/h (1 Bft) 93,62 %
22.07.2018 22:44 22,8 C 20,6 C 20,6 C 64 % 1013,7 hPa 0,0 l/m 0 min 0 min 0 W/m 2,3 km/h (1 Bft) 95,74 %
22.07.2018 22:46 22,7 C 20,6 C 20,6 C 64 % 1013,6 hPa 0,0 l/m 0 min 0 min 0 W/m 2,3 km/h (1 Bft) 95,65 %
22.07.2018 22:48 22,7 C 20,6 C 20,6 C 65 % 1013,7 hPa 0,0 l/m 0 min 0 min 0 W/m 2,3 km/h (1 Bft) 95,74 %
22.07.2018 22:50 22,6 C 20,6 C 20,6 C 65 % 1013,7 hPa 0,0 l/m 0 min 0 min 0 W/m 2,3 km/h (1 Bft) 97,87 %
22.07.2018 22:52 22,6 C 20,6 C 20,6 C 65 % 1013,7 hPa 0,0 l/m 0 min 0 min 0 W/m 2,3 km/h (1 Bft) 97,87 %
22.07.2018 22:54 22,5 C 20,6 C 20,0 C 65 % 1013,7 hPa 0,0 l/m 0 min 0 min 0 W/m 2,3 km/h (1 Bft) 95,74 %
22.07.2018 22:56 22,5 C 20,0 C 20,0 C 66 % 1013,7 hPa 0,0 l/m 0 min 0 min 0 W/m 0,0 km/h (0 Bft) 97,87 %
22.07.2018 22:58 22,4 C 20,0 C 20,0 C 66 % 1013,8 hPa 0,0 l/m 0 min 0 min 0 W/m 2,3 km/h (1 Bft) 97,87 %
22.07.2018 23:00 22,4 C 20,0 C 20,0 C 66 % 1013,8 hPa 0,0 l/m 0 min 0 min 0 W/m 2,3 km/h (1 Bft) 97,83 %
22.07.2018 23:02 22,3 C 20,0 C 20,0 C 66 % 1013,8 hPa 0,0 l/m 0 min 0 min 0 W/m 2,3 km/h (1 Bft) 95,83 %
22.07.2018 23:04 22,2 C 20,0 C 20,0 C 66 % 1013,9 hPa 0,0 l/m 0 min 0 min 0 W/m 0,0 km/h (0 Bft) 97,87 %
22.07.2018 23:06 22,2 C 20,0 C 20,0 C 67 % 1013,9 hPa 0,0 l/m 0 min 0 min 0 W/m 2,3 km/h (1 Bft) 97,87 %
22.07.2018 23:08 22,2 C 20,0 C 20,0 C 67 % 1013,8 hPa 0,0 l/m 0 min 0 min 0 W/m 2,3 km/h (1 Bft) 97,87 %
22.07.2018 23:10 22,1 C 20,0 C 20,0 C 67 % 1013,9 hPa 0,0 l/m 0 min 0 min 0 W/m 4,5 km/h (1 Bft) 97,83 %
22.07.2018 23:12 22,1 C 20,0 C 20,0 C 68 % 1013,9 hPa 0,0 l/m 0 min 0 min 0 W/m 4,5 km/h (1 Bft) 95,74 %
22.07.2018 23:14 22,0 C 20,0 C 20,0 C 68 % 1013,9 hPa 0,0 l/m 0 min 0 min 0 W/m 2,3 km/h (1 Bft) 97,87 %
22.07.2018 23:16 21,9 C 20,0 C 20,0 C 68 % 1013,8 hPa 0,0 l/m 0 min 0 min 0 W/m 2,3 km/h (1 Bft) 97,87 %
22.07.2018 23:18 21,9 C 19,4 C 20,0 C 68 % 1013,9 hPa 0,0 l/m 0 min 0 min 0 W/m 4,5 km/h (1 Bft) 97,87 %
22.07.2018 23:20 21,8 C 19,4 C 20,0 C 68 % 1013,9 hPa 0,0 l/m 0 min 0 min 0 W/m 2,3 km/h (1 Bft) 97,87 %
22.07.2018 23:22 21,8 C 19,4 C 19,4 C 68 % 1013,9 hPa 0,0 l/m 0 min 0 min 0 W/m 0,0 km/h (0 Bft) 97,83 %
22.07.2018 23:24 21,7 C 19,4 C 19,4 C 68 % 1013,9 hPa 0,0 l/m 0 min 0 min 0 W/m 2,3 km/h (1 Bft) 97,87 %
22.07.2018 23:26 21,7 C 19,4 C 19,4 C 68 % 1013,9 hPa 0,0 l/m 0 min 0 min 0 W/m 2,3 km/h (1 Bft) 97,87 %
22.07.2018 23:28 21,7 C 19,4 C 19,4 C 68 % 1013,9 hPa 0,0 l/m 0 min 0 min 0 W/m 2,3 km/h (1 Bft) 100,00 %
22.07.2018 23:30 21,6 C 19,4 C 19,4 C 69 % 1014,0 hPa 0,0 l/m 0 min 0 min 0 W/m 2,3 km/h (1 Bft) 100,00 %
22.07.2018 23:32 21,6 C 19,4 C 19,4 C 69 % 1013,9 hPa 0,0 l/m 0 min 0 min 0 W/m 2,3 km/h (1 Bft) 98,08 %
22.07.2018 23:34 21,5 C 19,4 C 19,4 C 69 % 1014,0 hPa 0,0 l/m 0 min 0 min 0 W/m 0,0 km/h (0 Bft) 100,00 %
22.07.2018 23:36 21,4 C 19,4 C 19,4 C 69 % 1013,9 hPa 0,0 l/m 0 min 0 min 0 W/m 0,0 km/h (0 Bft) 100,00 %
22.07.2018 23:38 21,4 C 19,4 C 19,4 C 69 % 1014,0 hPa 0,0 l/m 0 min 0 min 0 W/m 0,0 km/h (0 Bft) 100,00 %
22.07.2018 23:40 21,4 C 19,4 C 19,4 C 70 % 1013,9 hPa 0,0 l/m 0 min 0 min 0 W/m 0,0 km/h (0 Bft) 100,00 %
22.07.2018 23:42 21,3 C 19,4 C 18,9 C 70 % 1014,0 hPa 0,0 l/m 0 min 0 min 0 W/m 0,0 km/h (0 Bft) 95,74 %
22.07.2018 23:44 21,3 C 19,4 C 18,9 C 70 % 1014,1 hPa 0,0 l/m 0 min 0 min 0 W/m 0,0 km/h (0 Bft) 97,87 %
22.07.2018 23:46 21,2 C 19,4 C 18,9 C 70 % 1014,0 hPa 0,0 l/m 0 min 0 min 0 W/m 0,0 km/h (0 Bft) 100,00 %
22.07.2018 23:48 21,2 C 18,9 C 18,9 C 70 % 1013,9 hPa 0,0 l/m 0 min 0 min 0 W/m 0,0 km/h (0 Bft) 100,00 %
22.07.2018 23:50 21,1 C 18,9 C 18,9 C 71 % 1014,0 hPa 0,0 l/m 0 min 0 min 0 W/m 0,0 km/h (0 Bft) 97,87 %
22.07.2018 23:52 21,1 C 18,9 C 18,9 C 71 % 1014,0 hPa 0,0 l/m 0 min 0 min 0 W/m 0,0 km/h (0 Bft) 95,74 %
22.07.2018 23:54 21,0 C 18,9 C 18,9 C 71 % 1014,0 hPa 0,0 l/m 0 min 0 min 0 W/m 0,0 km/h (0 Bft) 97,87 %
22.07.2018 23:56 21,0 C 18,9 C 18,9 C 71 % 1014,0 hPa 0,0 l/m 0 min 0 min 0 W/m 0,0 km/h (0 Bft) 100,00 %
22.07.2018 23:58 20,9 C 18,9 C 18,9 C 72 % 1014,0 hPa 0,0 l/m 0 min 0 min 0 W/m 0,0 km/h (0 Bft) 100,00 %
_ Min-Zeit 06:10 05:46 05:18 12:28 00:00 - - - - 00:40 05:42
Minimum _ 16,3 C 15,0 C 15,6 C 50 % 1010,2 hPa - - - - 0,0 km/h (0 Bft) 83,33 %
_ Max-Zeit 15:58 12:00 15:46 06:52 23:44 00:00 12:08 00:00 14:44 12:16 00:04
Maximum _ 28,5 C 35,6 C 26,7 C 89 % 1014,1 hPa 0,0 l/m 4 min 0 min 963 W/m 20,3 km/h
W-NW (4 Bft)
100,00 %
Durchschnitt _ 22,7 C 23,1 C 21,0 C 68 % 1012,1 hPa #0,0 l/m #9:36 h #0 min. 369 W/m 6,3 km/h (2 Bft) 97,42 %
© 2018 W. Hausmann